Time,TemperatureF,DewpointF,PressureIn,WindDirection,WindDirectionDegrees,WindSpeedMPH,WindSpeedGustMPH,Humidity,HourlyPrecipIn,Conditions,Clouds,dailyrainin,SoftwareType,DateUTC
2013-02-14 00:00:00,33.7,31.9,29.62,NNW,338,0.0,9.0,93,0.01,,,0.07,VWS V14.01,2013-02-14 05:00:00,
2013-02-14 00:02:00,33.7,31.9,29.62,North,355,5.0,9.0,93,0.01,,,0.07,VWS V14.01,2013-02-14 05:02:00,
2013-02-14 00:07:00,33.7,31.9,29.63,NNW,343,2.0,6.0,93,0.01,,,0.01,VWS V14.01,2013-02-14 05:07:00,
2013-02-14 00:09:00,33.8,32.0,29.63,NNW,340,0.0,6.0,93,0.01,,,0.01,VWS V14.01,2013-02-14 05:09:00,
2013-02-14 00:12:00,33.8,32.3,29.63,NNW,328,0.0,8.0,94,0.01,,,0.01,VWS V14.01,2013-02-14 05:12:00,
2013-02-14 00:16:00,33.8,32.3,29.63,NNW,339,9.0,11.0,94,0.01,,,0.01,VWS V14.01,2013-02-14 05:16:00,
2013-02-14 00:18:00,33.8,32.3,29.64,NNW,341,4.0,11.0,94,0.01,,,0.01,VWS V14.01,2013-02-14 05:18:00,
2013-02-14 00:21:00,33.8,32.3,29.64,North,355,8.0,11.0,94,0.01,,,0.01,VWS V14.01,2013-02-14 05:21:00,
2013-02-14 00:23:00,33.8,32.3,29.64,NW,321,8.0,11.0,94,0.01,,,0.01,VWS V14.01,2013-02-14 05:23:00,
2013-02-14 00:27:00,34.0,32.5,29.64,NW,317,0.0,11.0,94,0.01,,,0.01,VWS V14.01,2013-02-14 05:27:00,
2013-02-14 00:28:00,34.0,32.5,29.64,NW,317,8.0,11.0,94,0.01,,,0.01,VWS V14.01,2013-02-14 05:28:00,
2013-02-14 00:30:00,34.0,32.5,29.64,North,5,2.0,11.0,94,0.01,,,0.01,VWS V14.01,2013-02-14 05:30:00,
2013-02-14 00:33:00,34.0,32.5,29.64,North,5,2.0,11.0,94,0.01,,,0.01,VWS V14.01,2013-02-14 05:33:00,
2013-02-14 00:34:00,34.0,32.5,29.64,NNW,334,4.0,7.0,94,0.01,,,0.01,VWS V14.01,2013-02-14 05:34:00,
2013-02-14 00:38:00,34.0,32.5,29.64,NNW,330,4.0,11.0,94,0.01,,,0.01,VWS V14.01,2013-02-14 05:38:00,
2013-02-14 00:43:00,34.1,32.6,29.64,NW,321,0.0,11.0,94,0.02,,,0.02,VWS V14.01,2013-02-14 05:43:00,
2013-02-14 00:44:00,34.1,32.6,29.64,NW,321,0.0,11.0,94,0.02,,,0.02,VWS V14.01,2013-02-14 05:44:00,
2013-02-14 00:48:00,34.1,32.6,29.64,NNE,13,5.0,11.0,94,0.02,,,0.02,VWS V14.01,2013-02-14 05:48:00,
2013-02-14 00:49:00,34.1,32.6,29.64,North,5,4.0,11.0,94,0.02,,,0.02,VWS V14.01,2013-02-14 05:49:00,
2013-02-14 00:54:00,34.1,32.6,29.64,NNW,336,3.0,11.0,94,0.02,,,0.02,VWS V14.01,2013-02-14 05:54:00,
2013-02-14 00:55:00,34.1,32.6,29.64,NNW,331,8.0,11.0,94,0.02,,,0.02,VWS V14.01,2013-02-14 05:55:00,
2013-02-14 00:57:00,34.1,32.6,29.64,NNW,333,4.0,11.0,94,0.02,,,0.02,VWS V14.01,2013-02-14 05:57:00,
2013-02-14 01:00:00,34.1,32.6,29.64,North,349,4.0,11.0,94,0.02,,,0.02,VWS V14.01,2013-02-14 06:00:00,
2013-02-14 01:02:00,34.1,32.6,29.64,North,355,5.0,11.0,94,0.02,,,0.02,VWS V14.01,2013-02-14 06:02:00,
2013-02-14 01:03:00,34.1,32.6,29.64,North,349,4.0,11.0,94,0.02,,,0.02,VWS V14.01,2013-02-14 06:03:00,
2013-02-14 01:08:00,34.1,32.6,29.64,NNW,333,4.0,9.0,94,0.02,,,0.02,VWS V14.01,2013-02-14 06:08:00,
2013-02-14 01:11:00,34.1,32.6,29.64,NNW,341,4.0,9.0,94,0.02,,,0.02,VWS V14.01,2013-02-14 06:11:00,
2013-02-14 01:14:00,34.1,32.6,29.64,North,350,0.0,9.0,94,0.02,,,0.02,VWS V14.01,2013-02-14 06:14:00,
2013-02-14 01:15:00,34.1,32.6,29.64,North,355,6.0,9.0,94,0.02,,,0.02,VWS V14.01,2013-02-14 06:15:00,
2013-02-14 01:16:00,34.3,32.8,29.64,NNE,22,5.0,10.0,94,0.02,,,0.02,VWS V14.01,2013-02-14 06:16:00,
2013-02-14 01:17:00,34.3,32.8,29.64,NNE,15,3.0,10.0,94,0.02,,,0.02,VWS V14.01,2013-02-14 06:17:00,
2013-02-14 01:22:00,34.3,32.8,29.64,NNW,348,4.0,10.0,94,0.02,,,0.02,VWS V14.01,2013-02-14 06:22:00,
2013-02-14 01:23:00,34.3,32.8,29.64,North,5,3.0,10.0,94,0.02,,,0.02,VWS V14.01,2013-02-14 06:23:00,
2013-02-14 01:26:00,34.3,32.8,29.64,North,5,0.0,10.0,94,0.02,,,0.02,VWS V14.01,2013-02-14 06:26:00,
2013-02-14 01:27:00,34.1,32.6,29.64,NNW,339,4.0,10.0,94,0.02,,,0.02,VWS V14.01,2013-02-14 06:27:00,
2013-02-14 01:30:00,34.3,32.8,29.65,North,5,2.0,10.0,94,0.02,,,0.02,VWS V14.01,2013-02-14 06:30:00,
2013-02-14 01:31:00,34.3,32.8,29.64,North,11,5.0,10.0,94,0.02,,,0.02,VWS V14.01,2013-02-14 06:31:00,
2013-02-14 01:33:00,34.3,32.8,29.65,North,5,2.0,3.0,94,0.01,,,0.02,VWS V14.01,2013-02-14 06:33:00,
2013-02-14 01:35:00,34.3,32.8,29.65,NNW,333,7.0,9.0,94,0.01,,,0.02,VWS V14.01,2013-02-14 06:35:00,
2013-02-14 01:36:00,34.1,32.6,29.65,North,355,0.0,9.0,94,0.01,,,0.02,VWS V14.01,2013-02-14 06:36:00,
2013-02-14 01:37:00,34.1,32.6,29.65,North,351,3.0,9.0,94,0.01,,,0.02,VWS V14.01,2013-02-14 06:37:00,
2013-02-14 01:40:00,34.3,32.8,29.65,NW,325,4.0,10.0,94,0.01,,,0.02,VWS V14.01,2013-02-14 06:40:00,
2013-02-14 01:42:00,34.3,32.8,29.65,NNW,336,7.0,10.0,94,0.01,,,0.02,VWS V14.01,2013-02-14 06:42:00,
2013-02-14 01:46:00,34.3,32.8,29.65,North,355,4.0,10.0,94,0.01,,,0.02,VWS V14.01,2013-02-14 06:46:00,
2013-02-14 01:47:00,34.3,32.8,29.65,NW,321,7.0,10.0,94,0.01,,,0.02,VWS V14.01,2013-02-14 06:47:00,
2013-02-14 01:48:00,34.3,32.8,29.65,North,355,0.0,10.0,94,0.01,,,0.02,VWS V14.01,2013-02-14 06:48:00,
2013-02-14 01:53:00,34.3,32.8,29.65,NW,320,3.0,10.0,94,0.01,,,0.02,VWS V14.01,2013-02-14 06:53:00,
2013-02-14 01:54:00,34.4,33.1,29.65,NW,323,3.0,10.0,95,0.01,,,0.02,VWS V14.01,2013-02-14 06:54:00,
2013-02-14 01:55:00,34.4,33.1,29.65,NNW,340,7.0,10.0,95,0.01,,,0.02,VWS V14.01,2013-02-14 06:55:00,
2013-02-14 01:56:00,34.4,33.1,29.65,NNW,343,0.0,10.0,95,0.01,,,0.02,VWS V14.01,2013-02-14 06:56:00,
2013-02-14 01:59:00,34.4,33.1,29.65,NNW,333,0.0,10.0,95,0.01,,,0.02,VWS V14.01,2013-02-14 06:59:00,
2013-02-14 02:00:00,34.4,33.1,29.66,NNW,339,0.0,10.0,95,0.01,,,0.02,VWS V14.01,2013-02-14 07:00:00,
2013-02-14 02:01:00,34.4,33.1,29.65,NNW,340,2.0,10.0,95,0.01,,,0.02,VWS V14.01,2013-02-14 07:01:00,
2013-02-14 02:02:00,34.4,33.1,29.66,NNW,339,0.0,10.0,95,0.01,,,0.02,VWS V14.01,2013-02-14 07:02:00,
2013-02-14 02:03:00,34.4,33.1,29.66,NNW,339,0.0,10.0,95,0.01,,,0.02,VWS V14.01,2013-02-14 07:03:00,
2013-02-14 02:08:00,34.4,33.1,29.66,NNW,333,4.0,5.0,95,0.00,,,0.02,VWS V14.01,2013-02-14 07:08:00,
2013-02-14 02:09:00,34.6,33.3,29.66,NNW,339,3.0,7.0,95,0.00,,,0.02,VWS V14.01,2013-02-14 07:09:00,
2013-02-14 02:11:00,34.6,33.3,29.66,NNW,339,5.0,7.0,95,0.00,,,0.02,VWS V14.01,2013-02-14 07:11:00,
2013-02-14 02:12:00,34.6,33.3,29.66,NNW,339,1.0,7.0,95,0.00,,,0.02,VWS V14.01,2013-02-14 07:12:00,
2013-02-14 02:16:00,34.6,33.3,29.66,NNW,343,4.0,7.0,95,0.00,,,0.02,VWS V14.01,2013-02-14 07:16:00,
2013-02-14 02:17:00,34.6,33.3,29.67,NNW,343,0.0,7.0,95,0.00,,,0.02,VWS V14.01,2013-02-14 07:17:00,
2013-02-14 02:18:00,34.6,33.3,29.67,NNW,340,0.0,7.0,95,0.00,,,0.02,VWS V14.01,2013-02-14 07:18:00,
2013-02-14 02:19:00,34.6,33.3,29.67,NNW,347,3.0,8.0,95,0.00,,,0.02,VWS V14.01,2013-02-14 07:19:00,
2013-02-14 02:22:00,34.7,33.4,29.67,North,350,7.0,9.0,95,0.00,,,0.02,VWS V14.01,2013-02-14 07:22:00,
2013-02-14 02:25:00,34.7,33.4,29.67,NNE,30,8.0,10.0,95,0.00,,,0.02,VWS V14.01,2013-02-14 07:25:00,
2013-02-14 02:29:00,34.9,33.6,29.67,NNW,336,3.0,10.0,95,0.00,,,0.02,VWS V14.01,2013-02-14 07:29:00,
2013-02-14 02:30:00,34.9,33.6,29.67,NNE,12,3.0,10.0,95,0.00,,,0.02,VWS V14.01,2013-02-14 07:30:00,
2013-02-14 02:32:00,34.9,33.6,29.67,NNW,333,3.0,10.0,95,0.01,,,0.03,VWS V14.01,2013-02-14 07:32:00,
2013-02-14 02:34:00,34.9,33.6,29.68,NNW,340,5.0,7.0,95,0.01,,,0.03,VWS V14.01,2013-02-14 07:34:00,
2013-02-14 02:38:00,34.9,33.6,29.68,NW,321,2.0,7.0,95,0.01,,,0.03,VWS V14.01,2013-02-14 07:38:00,
2013-02-14 02:39:00,34.9,33.6,29.68,NW,322,2.0,7.0,95,0.01,,,0.03,VWS V14.01,2013-02-14 07:39:00,
2013-02-14 02:41:00,34.9,33.6,29.68,NW,326,5.0,7.0,95,0.01,,,0.03,VWS V14.01,2013-02-14 07:41:00,
2013-02-14 02:44:00,35.0,33.7,29.68,NNW,327,3.0,7.0,95,0.01,,,0.03,VWS V14.01,2013-02-14 07:44:00,
2013-02-14 02:46:00,35.0,33.7,29.68,North,360,1.0,8.0,95,0.01,,,0.03,VWS V14.01,2013-02-14 07:46:00,
2013-02-14 02:49:00,35.0,33.7,29.69,NNE,19,3.0,9.0,95,0.01,,,0.03,VWS V14.01,2013-02-14 07:49:00,
2013-02-14 02:51:00,34.9,33.6,29.69,North,9,4.0,9.0,95,0.01,,,0.03,VWS V14.01,2013-02-14 07:51:00,
2013-02-14 02:53:00,34.9,33.6,29.69,NNW,336,0.0,9.0,95,0.01,,,0.03,VWS V14.01,2013-02-14 07:53:00,
2013-02-14 02:56:00,35.0,33.7,29.69,NNW,327,5.0,9.0,95,0.01,,,0.03,VWS V14.01,2013-02-14 07:56:00,
2013-02-14 02:58:00,35.0,33.7,29.69,NW,321,4.0,9.0,95,0.01,,,0.03,VWS V14.01,2013-02-14 07:58:00,
2013-02-14 02:59:00,35.0,33.7,29.69,NW,312,0.0,9.0,95,0.01,,,0.03,VWS V14.01,2013-02-14 07:59:00,
2013-02-14 03:00:00,35.0,33.7,29.71,NW,311,7.0,9.0,95,0.01,,,0.03,VWS V14.01,2013-02-14 08:00:00,
2013-02-14 03:01:00,35.0,33.7,29.69,NW,313,0.0,9.0,95,0.01,,,0.03,VWS V14.01,2013-02-14 08:01:00,
2013-02-14 03:03:00,35.0,33.7,29.71,NW,312,0.0,9.0,95,0.01,,,0.03,VWS V14.01,2013-02-14 08:03:00,
2013-02-14 03:04:00,35.0,33.7,29.71,NW,308,6.0,7.0,95,0.01,,,0.03,VWS V14.01,2013-02-14 08:04:00,
2013-02-14 03:05:00,35.0,33.7,29.71,NW,313,4.0,7.0,95,0.01,,,0.03,VWS V14.01,2013-02-14 08:05:00,
2013-02-14 03:08:00,35.0,33.7,29.71,NW,316,7.0,8.0,95,0.01,,,0.03,VWS V14.01,2013-02-14 08:08:00,
2013-02-14 03:10:00,35.0,33.7,29.71,NW,313,6.0,8.0,95,0.01,,,0.03,VWS V14.01,2013-02-14 08:10:00,
2013-02-14 03:11:00,35.0,33.7,29.71,North,355,3.0,8.0,95,0.01,,,0.03,VWS V14.01,2013-02-14 08:11:00,
2013-02-14 03:14:00,34.9,33.6,29.71,NNW,334,3.0,8.0,95,0.02,,,0.04,VWS V14.01,2013-02-14 08:14:00,
2013-02-14 03:16:00,34.9,33.6,29.71,NNW,330,0.0,8.0,95,0.02,,,0.04,VWS V14.01,2013-02-14 08:16:00,
2013-02-14 03:19:00,34.9,33.6,29.71,North,355,4.0,8.0,95,0.02,,,0.04,VWS V14.01,2013-02-14 08:19:00,
2013-02-14 03:20:00,34.9,33.6,29.71,NNW,329,0.0,8.0,95,0.02,,,0.04,VWS V14.01,2013-02-14 08:20:00,
2013-02-14 03:24:00,34.9,33.6,29.71,NW,321,6.0,8.0,95,0.02,,,0.04,VWS V14.01,2013-02-14 08:24:00,
2013-02-14 03:25:00,34.9,33.6,29.71,NW,320,5.0,8.0,95,0.02,,,0.04,VWS V14.01,2013-02-14 08:25:00,
2013-02-14 03:26:00,34.9,33.6,29.71,NW,320,3.0,8.0,95,0.02,,,0.04,VWS V14.01,2013-02-14 08:26:00,
2013-02-14 03:29:00,34.9,33.6,29.71,NW,320,0.0,8.0,95,0.02,,,0.04,VWS V14.01,2013-02-14 08:29:00,
2013-02-14 03:30:00,34.9,33.6,29.71,NNW,334,6.0,8.0,95,0.02,,,0.04,VWS V14.01,2013-02-14 08:30:00,
2013-02-14 03:33:00,34.9,33.6,29.71,NNW,334,6.0,8.0,95,0.02,,,0.04,VWS V14.01,2013-02-14 08:33:00,
2013-02-14 03:34:00,34.7,33.4,29.71,NNW,328,2.0,6.0,95,0.01,,,0.04,VWS V14.01,2013-02-14 08:34:00,
2013-02-14 03:35:00,34.7,33.4,29.71,NW,322,5.0,6.0,95,0.01,,,0.04,VWS V14.01,2013-02-14 08:35:00,
2013-02-14 03:39:00,34.7,33.4,29.71,NW,326,0.0,6.0,95,0.01,,,0.04,VWS V14.01,2013-02-14 08:39:00,
2013-02-14 03:40:00,34.7,33.4,29.71,NNW,329,7.0,7.0,95,0.01,,,0.04,VWS V14.01,2013-02-14 08:40:00,
2013-02-14 03:42:00,34.7,33.4,29.71,North,5,1.0,8.0,95,0.01,,,0.04,VWS V14.01,2013-02-14 08:42:00,
2013-02-14 03:45:00,34.7,33.4,29.71,North,360,3.0,8.0,95,0.01,,,0.04,VWS V14.01,2013-02-14 08:45:00,
2013-02-14 03:49:00,34.7,33.4,29.72,North,350,0.0,8.0,95,0.01,,,0.04,VWS V14.01,2013-02-14 08:49:00,
2013-02-14 03:50:00,34.7,33.4,29.72,NNW,342,6.0,8.0,95,0.01,,,0.04,VWS V14.01,2013-02-14 08:50:00,
2013-02-14 03:52:00,34.7,33.4,29.72,NNW,328,0.0,8.0,95,0.01,,,0.04,VWS V14.01,2013-02-14 08:52:00,
2013-02-14 03:55:00,34.7,33.4,29.72,NNW,331,1.0,8.0,95,0.01,,,0.04,VWS V14.01,2013-02-14 08:55:00,
2013-02-14 03:59:00,34.7,33.4,29.72,NNW,328,4.0,8.0,95,0.01,,,0.04,VWS V14.01,2013-02-14 08:59:00,
2013-02-14 04:00:00,34.7,33.4,29.72,NNW,340,6.0,8.0,95,0.01,,,0.04,VWS V14.01,2013-02-14 09:00:00,
2013-02-14 04:01:00,34.7,33.4,29.72,NW,325,4.0,8.0,95,0.01,,,0.04,VWS V14.01,2013-02-14 09:01:00,
2013-02-14 04:04:00,34.7,33.4,29.73,NNW,337,5.0,5.0,95,0.02,,,0.05,VWS V14.01,2013-02-14 09:04:00,
2013-02-14 04:06:00,34.6,33.3,29.73,NNW,336,3.0,7.0,95,0.02,,,0.05,VWS V14.01,2013-02-14 09:06:00,
2013-02-14 04:07:00,34.6,33.3,29.73,NNW,333,0.0,7.0,95,0.02,,,0.05,VWS V14.01,2013-02-14 09:07:00,
2013-02-14 04:12:00,34.6,33.3,29.73,NW,321,3.0,7.0,95,0.02,,,0.05,VWS V14.01,2013-02-14 09:12:00,
2013-02-14 04:13:00,34.6,33.3,29.73,NNW,344,3.0,9.0,95,0.02,,,0.05,VWS V14.01,2013-02-14 09:13:00,
2013-02-14 04:17:00,34.6,33.3,29.73,NNW,332,0.0,9.0,95,0.02,,,0.05,VWS V14.01,2013-02-14 09:17:00,
2013-02-14 04:21:00,34.6,33.3,29.73,NW,305,7.0,9.0,95,0.02,,,0.05,VWS V14.01,2013-02-14 09:21:00,
2013-02-14 04:23:00,34.6,33.3,29.73,NW,323,5.0,9.0,95,0.02,,,0.05,VWS V14.01,2013-02-14 09:23:00,
2013-02-14 04:24:00,34.6,33.3,29.73,NW,313,3.0,9.0,95,0.02,,,0.05,VWS V14.01,2013-02-14 09:24:00,
2013-02-14 04:26:00,34.6,33.3,29.73,NW,313,8.0,9.0,95,0.02,,,0.05,VWS V14.01,2013-02-14 09:26:00,
2013-02-14 04:29:00,34.6,33.3,29.73,NW,311,0.0,9.0,95,0.02,,,0.05,VWS V14.01,2013-02-14 09:29:00,
2013-02-14 04:30:00,34.4,33.1,29.73,NW,309,0.0,9.0,95,0.02,,,0.05,VWS V14.01,2013-02-14 09:30:00,
2013-02-14 04:32:00,34.4,33.1,29.73,NW,313,0.0,9.0,95,0.02,,,0.05,VWS V14.01,2013-02-14 09:32:00,
2013-02-14 04:33:00,34.4,33.1,29.73,NW,309,0.0,9.0,95,0.02,,,0.05,VWS V14.01,2013-02-14 09:33:00,
2013-02-14 04:36:00,34.4,33.1,29.73,NW,309,0.0,0.0,95,0.01,,,0.05,VWS V14.01,2013-02-14 09:36:00,
2013-02-14 04:37:00,34.4,33.1,29.73,NW,309,0.0,0.0,95,0.01,,,0.05,VWS V14.01,2013-02-14 09:37:00,
2013-02-14 04:38:00,34.4,33.1,29.73,NW,309,0.0,0.0,95,0.01,,,0.05,VWS V14.01,2013-02-14 09:38:00,
2013-02-14 04:42:00,34.3,33.0,29.73,NW,304,0.0,0.0,95,0.01,,,0.05,VWS V14.01,2013-02-14 09:42:00,
2013-02-14 04:43:00,34.3,33.0,29.73,NW,304,0.0,0.0,95,0.01,,,0.05,VWS V14.01,2013-02-14 09:43:00,
2013-02-14 04:47:00,34.3,33.0,29.73,WNW,297,5.0,5.0,95,0.01,,,0.05,VWS V14.01,2013-02-14 09:47:00,
2013-02-14 04:49:00,34.3,33.0,29.75,WNW,292,4.0,6.0,95,0.01,,,0.05,VWS V14.01,2013-02-14 09:49:00,
2013-02-14 04:52:00,34.3,33.0,29.75,WNW,291,3.0,7.0,95,0.01,,,0.05,VWS V14.01,2013-02-14 09:52:00,
2013-02-14 04:55:00,34.1,32.8,29.75,WNW,293,3.0,7.0,95,0.01,,,0.05,VWS V14.01,2013-02-14 09:55:00,
2013-02-14 04:57:00,34.1,32.8,29.75,WNW,293,3.0,7.0,95,0.01,,,0.05,VWS V14.01,2013-02-14 09:57:00,
2013-02-14 04:58:00,34.1,32.8,29.75,WNW,294,2.0,7.0,95,0.01,,,0.05,VWS V14.01,2013-02-14 09:58:00,
2013-02-14 05:00:00,34.1,32.8,29.75,WNW,292,0.0,7.0,95,0.01,,,0.05,VWS V14.01,2013-02-14 10:00:00,
2013-02-14 05:03:00,34.1,32.8,29.75,WNW,292,0.0,7.0,95,0.01,,,0.05,VWS V14.01,2013-02-14 10:03:00,
2013-02-14 05:04:00,34.0,32.7,29.75,WNW,292,0.0,0.0,95,0.01,,,0.05,VWS V14.01,2013-02-14 10:04:00,
2013-02-14 05:08:00,34.0,32.7,29.75,WNW,292,0.0,0.0,95,0.01,,,0.05,VWS V14.01,2013-02-14 10:08:00,
2013-02-14 05:09:00,34.0,32.7,29.75,WNW,292,0.0,0.0,95,0.01,,,0.05,VWS V14.01,2013-02-14 10:09:00,
2013-02-14 05:10:00,34.0,32.7,29.75,WNW,292,0.0,0.0,95,0.01,,,0.05,VWS V14.01,2013-02-14 10:10:00,
2013-02-14 05:12:00,33.8,32.5,29.75,WNW,292,2.0,6.0,95,0.01,,,0.05,VWS V14.01,2013-02-14 10:12:00,
2013-02-14 05:15:00,33.8,32.5,29.75,WNW,292,0.0,6.0,95,0.01,,,0.05,VWS V14.01,2013-02-14 10:15:00,
2013-02-14 05:16:00,33.8,32.5,29.75,WNW,292,0.0,6.0,95,0.01,,,0.05,VWS V14.01,2013-02-14 10:16:00,
2013-02-14 05:21:00,33.8,32.5,29.75,WNW,293,0.0,6.0,95,0.01,,,0.05,VWS V14.01,2013-02-14 10:21:00,
2013-02-14 05:22:00,33.7,32.4,29.75,WNW,293,0.0,6.0,95,0.01,,,0.05,VWS V14.01,2013-02-14 10:22:00,
2013-02-14 05:24:00,33.7,32.4,29.75,WNW,296,0.0,6.0,95,0.01,,,0.05,VWS V14.01,2013-02-14 10:24:00,
2013-02-14 05:27:00,33.7,32.4,29.75,WNW,295,3.0,7.0,95,0.01,,,0.05,VWS V14.01,2013-02-14 10:27:00,
2013-02-14 05:28:00,33.7,32.4,29.75,WNW,292,7.0,7.0,95,0.01,,,0.05,VWS V14.01,2013-02-14 10:28:00,
2013-02-14 05:29:00,33.7,32.4,29.75,WNW,292,0.0,7.0,95,0.01,,,0.05,VWS V14.01,2013-02-14 10:29:00,
2013-02-14 05:30:00,33.7,32.4,29.76,WNW,292,2.0,7.0,95,0.01,,,0.05,VWS V14.01,2013-02-14 10:30:00,
2013-02-14 05:32:00,33.7,32.4,29.75,WNW,292,2.0,7.0,95,0.01,,,0.05,VWS V14.01,2013-02-14 10:32:00,
2013-02-14 05:33:00,33.7,32.4,29.76,WNW,292,2.0,7.0,95,0.01,,,0.05,VWS V14.01,2013-02-14 10:33:00,
2013-02-14 05:35:00,33.5,32.2,29.76,WNW,292,2.0,6.0,95,0.00,,,0.05,VWS V14.01,2013-02-14 10:35:00,
2013-02-14 05:36:00,33.5,32.2,29.76,WNW,292,0.0,6.0,95,0.00,,,0.05,VWS V14.01,2013-02-14 10:36:00,
2013-02-14 05:38:00,33.5,32.2,29.76,WNW,292,1.0,6.0,95,0.00,,,0.05,VWS V14.01,2013-02-14 10:38:00,
2013-02-14 05:40:00,33.5,32.2,29.76,West,279,7.0,8.0,95,0.00,,,0.05,VWS V14.01,2013-02-14 10:40:00,
2013-02-14 05:43:00,33.5,32.2,29.76,WNW,287,2.0,8.0,95,0.00,,,0.05,VWS V14.01,2013-02-14 10:43:00,
2013-02-14 05:44:00,33.5,32.2,29.76,WNW,287,3.0,8.0,95,0.00,,,0.05,VWS V14.01,2013-02-14 10:44:00,
2013-02-14 05:46:00,33.5,32.2,29.76,WNW,287,0.0,8.0,95,0.00,,,0.05,VWS V14.01,2013-02-14 10:46:00,
2013-02-14 05:49:00,33.5,32.2,29.77,WNW,286,0.0,8.0,95,0.00,,,0.05,VWS V14.01,2013-02-14 10:49:00,
2013-02-14 05:51:00,33.4,32.1,29.77,WNW,286,0.0,8.0,95,0.00,,,0.05,VWS V14.01,2013-02-14 10:51:00,
2013-02-14 05:54:00,33.4,32.1,29.77,WNW,286,3.0,8.0,95,0.00,,,0.05,VWS V14.01,2013-02-14 10:54:00,
2013-02-14 05:55:00,33.4,32.1,29.77,WNW,286,0.0,8.0,95,0.00,,,0.05,VWS V14.01,2013-02-14 10:55:00,
2013-02-14 05:56:00,33.4,32.1,29.77,WNW,286,0.0,8.0,95,0.00,,,0.05,VWS V14.01,2013-02-14 10:56:00,
2013-02-14 06:00:00,33.1,31.8,29.78,WNW,292,0.0,8.0,95,0.00,,,0.05,VWS V14.01,2013-02-14 11:00:00,
2013-02-14 06:01:00,33.2,31.9,29.77,WNW,286,3.0,8.0,95,0.00,,,0.05,VWS V14.01,2013-02-14 11:01:00,
2013-02-14 06:03:00,33.1,31.8,29.78,WNW,292,0.0,8.0,95,0.00,,,0.05,VWS V14.01,2013-02-14 11:03:00,
2013-02-14 06:05:00,33.1,31.8,29.78,WNW,292,1.0,7.0,95,0.00,,,0.05,VWS V14.01,2013-02-14 11:05:00,
2013-02-14 06:07:00,33.1,31.8,29.78,WNW,288,6.0,8.0,95,0.00,,,0.05,VWS V14.01,2013-02-14 11:07:00,
2013-02-14 06:10:00,33.1,31.8,29.78,WNW,286,3.0,8.0,95,0.00,,,0.05,VWS V14.01,2013-02-14 11:10:00,
2013-02-14 06:13:00,33.1,31.8,29.78,WNW,282,3.0,8.0,95,0.00,,,0.05,VWS V14.01,2013-02-14 11:13:00,
2013-02-14 06:14:00,33.1,31.8,29.78,WNW,282,0.0,8.0,95,0.00,,,0.05,VWS V14.01,2013-02-14 11:14:00,
2013-02-14 06:18:00,33.1,31.8,29.79,West,281,4.0,8.0,95,0.00,,,0.05,VWS V14.01,2013-02-14 11:18:00,
2013-02-14 06:19:00,33.1,31.8,29.79,West,281,4.0,8.0,95,0.00,,,0.05,VWS V14.01,2013-02-14 11:19:00,
2013-02-14 06:23:00,32.9,31.6,29.79,West,273,0.0,9.0,95,0.00,,,0.05,VWS V14.01,2013-02-14 11:23:00,
2013-02-14 06:24:00,32.9,31.6,29.79,West,273,3.0,9.0,95,0.00,,,0.05,VWS V14.01,2013-02-14 11:24:00,
2013-02-14 06:29:00,32.9,31.6,29.79,West,275,4.0,9.0,95,0.00,,,0.05,VWS V14.01,2013-02-14 11:29:00,
2013-02-14 06:30:00,32.9,31.6,29.80,West,275,0.0,9.0,95,0.00,,,0.05,VWS V14.01,2013-02-14 11:30:00,
2013-02-14 06:32:00,32.9,31.6,29.80,West,275,3.0,9.0,95,0.00,,,0.05,VWS V14.01,2013-02-14 11:32:00,
2013-02-14 06:33:00,32.9,31.6,29.80,West,275,0.0,0.0,95,0.00,,,0.05,VWS V14.01,2013-02-14 11:33:00,
2013-02-14 06:38:00,32.9,31.6,29.80,West,278,0.0,7.0,95,0.00,,,0.05,VWS V14.01,2013-02-14 11:38:00,
2013-02-14 06:39:00,32.9,31.6,29.80,West,278,0.0,7.0,95,0.00,,,0.05,VWS V14.01,2013-02-14 11:39:00,
2013-02-14 06:40:00,32.9,31.6,29.80,West,278,0.0,7.0,95,0.00,,,0.05,VWS V14.01,2013-02-14 11:40:00,
2013-02-14 06:42:00,32.9,31.6,29.80,West,278,0.0,7.0,95,0.00,,,0.05,VWS V14.01,2013-02-14 11:42:00,
2013-02-14 06:44:00,32.9,31.6,29.80,West,279,0.0,7.0,95,0.00,,,0.05,VWS V14.01,2013-02-14 11:44:00,
2013-02-14 06:46:00,32.9,31.6,29.80,West,279,4.0,7.0,95,0.00,,,0.05,VWS V14.01,2013-02-14 11:46:00,
2013-02-14 06:48:00,32.9,31.6,29.81,West,279,3.0,7.0,95,0.00,,,0.05,VWS V14.01,2013-02-14 11:48:00,
2013-02-14 06:50:00,32.9,31.6,29.81,West,279,3.0,7.0,95,0.00,,,0.05,VWS V14.01,2013-02-14 11:50:00,
2013-02-14 06:51:00,32.9,31.6,29.81,West,279,0.0,7.0,95,0.00,,,0.05,VWS V14.01,2013-02-14 11:51:00,
2013-02-14 06:52:00,32.9,31.6,29.81,West,279,0.0,7.0,95,0.00,,,0.05,VWS V14.01,2013-02-14 11:52:00,
2013-02-14 06:55:00,32.8,31.5,29.81,West,279,4.0,7.0,95,0.00,,,0.05,VWS V14.01,2013-02-14 11:55:00,
2013-02-14 06:57:00,32.8,31.5,29.81,West,277,0.0,7.0,95,0.00,,,0.05,VWS V14.01,2013-02-14 11:57:00,
2013-02-14 06:58:00,32.8,31.5,29.81,West,273,4.0,7.0,95,0.00,,,0.05,VWS V14.01,2013-02-14 11:58:00,
2013-02-14 07:00:00,32.8,31.5,29.81,West,273,3.0,7.0,95,0.00,,,0.05,VWS V14.01,2013-02-14 12:00:00,
2013-02-14 07:03:00,32.7,31.4,29.82,West,275,5.0,7.0,95,0.00,,,0.05,VWS V14.01,2013-02-14 12:03:00,
2013-02-14 07:04:00,32.7,31.4,29.82,West,275,0.0,3.0,95,0.00,,,0.05,VWS V14.01,2013-02-14 12:04:00,
2013-02-14 07:08:00,32.7,31.4,29.82,West,276,2.0,7.0,95,0.00,,,0.05,VWS V14.01,2013-02-14 12:08:00,
2013-02-14 07:09:00,32.7,31.4,29.82,West,276,5.0,7.0,95,0.00,,,0.05,VWS V14.01,2013-02-14 12:09:00,
2013-02-14 07:11:00,32.7,31.4,29.82,West,275,4.0,7.0,95,0.00,,,0.05,VWS V14.01,2013-02-14 12:11:00,
2013-02-14 07:14:00,32.7,31.4,29.82,WNW,282,4.0,7.0,95,0.00,,,0.05,VWS V14.01,2013-02-14 12:14:00,
2013-02-14 07:15:00,32.7,31.4,29.82,West,279,4.0,7.0,95,0.00,,,0.05,VWS V14.01,2013-02-14 12:15:00,
2013-02-14 07:20:00,32.8,31.5,29.83,West,275,3.0,7.0,95,0.00,,,0.05,VWS V14.01,2013-02-14 12:20:00,
2013-02-14 07:21:00,32.8,31.5,29.83,West,275,3.0,7.0,95,0.00,,,0.05,VWS V14.01,2013-02-14 12:21:00,
2013-02-14 07:23:00,32.9,31.6,29.83,West,275,0.0,7.0,95,0.00,,,0.05,VWS V14.01,2013-02-14 12:23:00,
2013-02-14 07:26:00,32.9,31.6,29.83,West,277,3.0,7.0,95,0.00,,,0.05,VWS V14.01,2013-02-14 12:26:00,
2013-02-14 07:27:00,32.9,31.6,29.83,West,281,5.0,7.0,95,0.00,,,0.05,VWS V14.01,2013-02-14 12:27:00,
2013-02-14 07:29:00,33.1,31.8,29.83,WNW,286,2.0,8.0,95,0.00,,,0.05,VWS V14.01,2013-02-14 12:29:00,
2013-02-14 07:30:00,33.2,31.9,29.83,WNW,293,1.0,8.0,95,0.00,,,0.05,VWS V14.01,2013-02-14 12:30:00,
2013-02-14 07:31:00,33.1,31.8,29.83,WNW,286,0.0,8.0,95,0.00,,,0.05,VWS V14.01,2013-02-14 12:31:00,
2013-02-14 07:33:00,33.2,31.9,29.83,WNW,291,5.0,8.0,95,0.00,,,0.05,VWS V14.01,2013-02-14 12:33:00,
2013-02-14 07:34:00,33.2,31.9,29.83,WNW,293,2.0,5.0,95,0.00,,,0.05,VWS V14.01,2013-02-14 12:34:00,
2013-02-14 07:38:00,33.4,32.1,29.83,WNW,286,3.0,9.0,95,0.00,,,0.05,VWS V14.01,2013-02-14 12:38:00,
2013-02-14 07:40:00,33.5,32.2,29.83,WNW,291,0.0,9.0,95,0.00,,,0.05,VWS V14.01,2013-02-14 12:40:00,
2013-02-14 07:42:00,33.7,32.4,29.83,WNW,298,4.0,9.0,95,0.00,,,0.05,VWS V14.01,2013-02-14 12:42:00,
2013-02-14 07:43:00,33.7,32.4,29.83,West,279,7.0,9.0,95,0.00,,,0.05,VWS V14.01,2013-02-14 12:43:00,
2013-02-14 07:47:00,33.8,32.5,29.83,WNW,284,5.0,9.0,95,0.00,,,0.05,VWS V14.01,2013-02-14 12:47:00,
2013-02-14 07:48:00,33.8,32.5,29.84,NW,317,7.0,9.0,95,0.00,,,0.05,VWS V14.01,2013-02-14 12:48:00,
2013-02-14 07:51:00,34.0,32.7,29.84,WNW,298,5.0,9.0,95,0.00,,,0.05,VWS V14.01,2013-02-14 12:51:00,
2013-02-14 07:52:00,34.1,32.8,29.84,WNW,288,6.0,11.0,95,0.00,,,0.05,VWS V14.01,2013-02-14 12:52:00,
2013-02-14 07:53:00,34.1,32.8,29.84,WNW,290,7.0,11.0,95,0.00,,,0.05,VWS V14.01,2013-02-14 12:53:00,
2013-02-14 07:55:00,34.1,32.8,29.84,WNW,295,7.0,11.0,95,0.00,,,0.05,VWS V14.01,2013-02-14 12:55:00,
2013-02-14 07:59:00,34.3,33.0,29.84,West,280,8.0,12.0,95,0.00,,,0.05,VWS V14.01,2013-02-14 12:59:00,
2013-02-14 08:00:00,34.3,33.0,29.84,WNW,289,7.0,12.0,95,0.00,,,0.05,VWS V14.01,2013-02-14 13:00:00,
2013-02-14 08:03:00,34.4,33.1,29.85,West,281,1.0,12.0,95,0.00,,,0.05,VWS V14.01,2013-02-14 13:03:00,
2013-02-14 08:04:00,34.4,33.1,29.85,NW,304,7.0,7.0,95,0.00,,,0.05,VWS V14.01,2013-02-14 13:04:00,
2013-02-14 08:06:00,34.6,33.3,29.85,NW,305,5.0,10.0,95,0.00,,,0.05,VWS V14.01,2013-02-14 13:06:00,
2013-02-14 08:08:00,34.6,33.3,29.85,NW,311,8.0,10.0,95,0.00,,,0.05,VWS V14.01,2013-02-14 13:08:00,
2013-02-14 08:09:00,34.6,33.3,29.85,WNW,294,2.0,10.0,95,0.00,,,0.05,VWS V14.01,2013-02-14 13:09:00,
2013-02-14 08:10:00,34.6,33.3,29.85,NW,306,6.0,10.0,95,0.00,,,0.05,VWS V14.01,2013-02-14 13:10:00,
2013-02-14 08:13:00,34.7,33.4,29.85,WNW,298,2.0,10.0,95,0.00,,,0.05,VWS V14.01,2013-02-14 13:13:00,
2013-02-14 08:15:00,34.7,33.4,29.85,WNW,290,8.0,10.0,95,0.00,,,0.05,VWS V14.01,2013-02-14 13:15:00,
2013-02-14 08:17:00,34.7,33.4,29.85,NW,305,6.0,10.0,95,0.00,,,0.05,VWS V14.01,2013-02-14 13:17:00,
2013-02-14 08:18:00,34.9,33.6,29.86,WNW,296,5.0,10.0,95,0.00,,,0.05,VWS V14.01,2013-02-14 13:18:00,
2013-02-14 08:19:00,34.9,33.6,29.86,WNW,282,0.0,10.0,95,0.00,,,0.05,VWS V14.01,2013-02-14 13:19:00,
2013-02-14 08:24:00,35.3,34.0,29.86,WNW,284,4.0,10.0,95,0.00,,,0.05,VWS V14.01,2013-02-14 13:24:00,
2013-02-14 08:25:00,35.5,34.2,29.86,WNW,290,8.0,10.0,95,0.01,,,0.06,VWS V14.01,2013-02-14 13:25:00,
2013-02-14 08:28:00,35.6,34.3,29.86,NW,307,6.0,10.0,95,0.01,,,0.06,VWS V14.01,2013-02-14 13:28:00,
2013-02-14 08:30:00,35.8,34.2,29.86,WNW,291,4.0,10.0,94,0.01,,,0.06,VWS V14.01,2013-02-14 13:30:00,
2013-02-14 08:31:00,35.8,34.2,29.86,WNW,294,3.0,10.0,94,0.01,,,0.06,VWS V14.01,2013-02-14 13:31:00,
2013-02-14 08:35:00,36.0,34.2,29.87,NW,313,4.0,8.0,93,0.01,,,0.06,VWS V14.01,2013-02-14 13:35:00,
2013-02-14 08:36:00,36.0,34.2,29.87,NW,315,0.0,8.0,93,0.01,,,0.06,VWS V14.01,2013-02-14 13:36:00,
2013-02-14 08:37:00,36.2,34.4,29.87,WNW,301,5.0,8.0,93,0.01,,,0.06,VWS V14.01,2013-02-14 13:37:00,
2013-02-14 08:41:00,36.5,34.4,29.87,WNW,290,0.0,8.0,92,0.02,,,0.07,VWS V14.01,2013-02-14 13:41:00,
2013-02-14 08:43:00,36.8,35.0,29.87,WNW,287,4.0,8.0,93,0.02,,,0.07,VWS V14.01,2013-02-14 13:43:00,
2013-02-14 08:44:00,36.9,34.8,29.87,WNW,290,3.0,8.0,92,0.02,,,0.07,VWS V14.01,2013-02-14 13:44:00,
2013-02-14 08:45:00,36.9,34.8,29.87,WNW,291,4.0,8.0,92,0.02,,,0.07,VWS V14.01,2013-02-14 13:45:00,
2013-02-14 08:47:00,37.0,34.6,29.87,NW,306,3.0,8.0,91,0.02,,,0.07,VWS V14.01,2013-02-14 13:47:00,
2013-02-14 08:48:00,36.9,34.5,29.87,WNW,296,5.0,8.0,91,0.02,,,0.07,VWS V14.01,2013-02-14 13:48:00,
2013-02-14 08:50:00,37.0,34.6,29.87,WNW,291,0.0,8.0,91,0.03,,,0.08,VWS V14.01,2013-02-14 13:50:00,
2013-02-14 08:52:00,37.2,34.5,29.87,West,280,7.0,8.0,90,0.03,,,0.08,VWS V14.01,2013-02-14 13:52:00,
2013-02-14 08:55:00,37.2,34.3,29.87,NW,315,0.0,8.0,89,0.03,,,0.08,VWS V14.01,2013-02-14 13:55:00,
2013-02-14 08:56:00,37.3,34.4,29.87,NW,315,0.0,8.0,89,0.03,,,0.08,VWS V14.01,2013-02-14 13:56:00,
2013-02-14 08:59:00,37.9,35.0,29.87,WNW,287,4.0,8.0,89,0.03,,,0.08,VWS V14.01,2013-02-14 13:59:00,
2013-02-14 09:00:00,37.9,34.7,29.87,WNW,287,5.0,8.0,88,0.03,,,0.08,VWS V14.01,2013-02-14 14:00:00,
2013-02-14 09:03:00,38.2,35.0,29.87,WNW,284,3.0,8.0,88,0.03,,,0.08,VWS V14.01,2013-02-14 14:03:00,
2013-02-14 09:05:00,38.2,34.7,29.87,WNW,296,4.0,8.0,87,0.03,,,0.08,VWS V14.01,2013-02-14 14:05:00,
2013-02-14 09:07:00,38.2,34.7,29.87,WNW,303,6.0,8.0,87,0.03,,,0.08,VWS V14.01,2013-02-14 14:07:00,
2013-02-14 09:10:00,38.3,34.5,29.87,WNW,286,2.0,8.0,86,0.03,,,0.08,VWS V14.01,2013-02-14 14:10:00,
2013-02-14 09:11:00,38.3,34.5,29.87,WNW,289,6.0,8.0,86,0.03,,,0.08,VWS V14.01,2013-02-14 14:11:00,
2013-02-14 09:12:00,38.3,34.5,29.87,NW,304,5.0,8.0,86,0.04,,,0.09,VWS V14.01,2013-02-14 14:12:00,
2013-02-14 09:17:00,38.5,34.4,29.87,WNW,302,4.0,8.0,85,0.04,,,0.09,VWS V14.01,2013-02-14 14:17:00,
2013-02-14 09:18:00,38.5,34.4,29.88,WNW,291,0.0,8.0,85,0.04,,,0.09,VWS V14.01,2013-02-14 14:18:00,
2013-02-14 09:20:00,38.5,34.4,29.88,NW,306,5.0,8.0,85,0.04,,,0.09,VWS V14.01,2013-02-14 14:20:00,
2013-02-14 09:22:00,38.6,34.5,29.88,WNW,300,4.0,9.0,85,0.04,,,0.09,VWS V14.01,2013-02-14 14:22:00,
2013-02-14 09:25:00,38.9,34.8,29.88,West,275,0.0,10.0,85,0.04,,,0.09,VWS V14.01,2013-02-14 14:25:00,
2013-02-14 09:28:00,39.3,35.2,29.88,West,275,0.0,10.0,85,0.04,,,0.09,VWS V14.01,2013-02-14 14:28:00,
2013-02-14 09:30:00,39.5,34.8,29.88,NNW,327,8.0,10.0,83,0.04,,,0.09,VWS V14.01,2013-02-14 14:30:00,
2013-02-14 09:32:00,39.8,35.1,29.88,NW,309,5.0,10.0,83,0.04,,,0.09,VWS V14.01,2013-02-14 14:32:00,
2013-02-14 09:33:00,39.5,34.8,29.88,NW,313,6.0,10.0,83,0.04,,,0.09,VWS V14.01,2013-02-14 14:33:00,
2013-02-14 09:36:00,39.5,34.8,29.88,North,355,8.0,8.0,83,0.03,,,0.09,VWS V14.01,2013-02-14 14:36:00,
2013-02-14 09:38:00,39.6,34.9,29.88,NW,318,4.0,8.0,83,0.03,,,0.09,VWS V14.01,2013-02-14 14:38:00,
2013-02-14 09:39:00,39.8,35.4,29.88,NW,319,0.0,8.0,84,0.03,,,0.09,VWS V14.01,2013-02-14 14:39:00,
2013-02-14 09:42:00,39.8,34.8,29.88,WNW,290,4.0,9.0,82,0.03,,,0.09,VWS V14.01,2013-02-14 14:42:00,
2013-02-14 09:44:00,39.8,34.5,29.88,WNW,286,5.0,9.0,81,0.03,,,0.09,VWS V14.01,2013-02-14 14:44:00,
2013-02-14 09:47:00,39.8,34.5,29.88,NW,324,7.0,12.0,81,0.03,,,0.09,VWS V14.01,2013-02-14 14:47:00,
2013-02-14 09:49:00,39.6,34.0,29.89,North,350,6.0,12.0,80,0.03,,,0.09,VWS V14.01,2013-02-14 14:49:00,
2013-02-14 09:53:00,40.3,34.9,29.89,NNW,339,0.0,12.0,81,0.03,,,0.09,VWS V14.01,2013-02-14 14:53:00,
2013-02-14 09:55:00,40.5,34.5,29.89,NW,304,2.0,12.0,79,0.03,,,0.09,VWS V14.01,2013-02-14 14:55:00,
2013-02-14 09:58:00,40.3,34.3,29.89,North,360,4.0,12.0,79,0.03,,,0.09,VWS V14.01,2013-02-14 14:58:00,
2013-02-14 09:59:00,40.5,34.5,29.89,NNE,12,4.0,12.0,79,0.03,,,0.09,VWS V14.01,2013-02-14 14:59:00,
2013-02-14 10:00:00,40.8,34.2,29.89,WNW,297,7.0,12.0,77,0.03,,,0.09,VWS V14.01,2013-02-14 15:00:00,
2013-02-14 10:02:00,40.8,34.8,29.89,WNW,302,3.0,12.0,79,0.03,,,0.09,VWS V14.01,2013-02-14 15:02:00,
2013-02-14 10:03:00,40.8,34.2,29.89,WNW,297,7.0,12.0,77,0.03,,,0.09,VWS V14.01,2013-02-14 15:03:00,
2013-02-14 10:06:00,40.2,33.6,29.89,WNW,288,3.0,9.0,77,0.01,,,0.09,VWS V14.01,2013-02-14 15:06:00,
2013-02-14 10:10:00,40.6,34.0,29.89,NNW,329,2.0,9.0,77,0.01,,,0.09,VWS V14.01,2013-02-14 15:10:00,
2013-02-14 10:11:00,40.6,34.0,29.89,NW,313,5.0,9.0,77,0.01,,,0.09,VWS V14.01,2013-02-14 15:11:00,
2013-02-14 10:12:00,40.5,33.5,29.89,WNW,299,6.0,9.0,76,0.01,,,0.09,VWS V14.01,2013-02-14 15:12:00,
2013-02-14 10:15:00,40.5,33.5,29.89,WNW,297,0.0,9.0,76,0.01,,,0.09,VWS V14.01,2013-02-14 15:15:00,
2013-02-14 10:16:00,40.5,33.5,29.89,WNW,295,7.0,9.0,76,0.01,,,0.09,VWS V14.01,2013-02-14 15:16:00,
2013-02-14 10:17:00,40.8,34.2,29.89,WNW,303,3.0,9.0,77,0.01,,,0.09,VWS V14.01,2013-02-14 15:17:00,
2013-02-14 10:20:00,40.9,33.9,29.89,NNW,340,0.0,9.0,76,0.01,,,0.09,VWS V14.01,2013-02-14 15:20:00,
2013-02-14 10:21:00,41.2,34.2,29.89,NNW,348,3.0,9.0,76,0.01,,,0.09,VWS V14.01,2013-02-14 15:21:00,
2013-02-14 10:23:00,41.3,34.0,29.89,NNW,342,0.0,9.0,75,0.01,,,0.09,VWS V14.01,2013-02-14 15:23:00,
2013-02-14 10:27:00,41.5,33.8,29.89,NNW,338,0.0,9.0,74,0.01,,,0.09,VWS V14.01,2013-02-14 15:27:00,
2013-02-14 10:30:00,41.3,34.0,29.89,NNW,332,3.0,9.0,75,0.01,,,0.09,VWS V14.01,2013-02-14 15:30:00,
2013-02-14 10:33:00,41.1,33.1,29.90,NNW,339,4.0,4.0,73,0.00,,,0.09,VWS V14.01,2013-02-14 15:33:00,
2013-02-14 10:34:00,40.9,32.9,29.90,NNW,338,7.0,9.0,73,0.00,,,0.09,VWS V14.01,2013-02-14 15:34:00,
2013-02-14 10:38:00,41.3,33.7,29.90,North,355,6.0,9.0,74,0.00,,,0.09,VWS V14.01,2013-02-14 15:38:00,
2013-02-14 10:39:00,41.3,33.7,29.90,North,350,0.0,9.0,74,0.00,,,0.09,VWS V14.01,2013-02-14 15:39:00,
2013-02-14 10:40:00,41.3,32.3,29.90,NNW,336,0.0,9.0,70,0.00,,,0.09,VWS V14.01,2013-02-14 15:40:00,
2013-02-14 10:43:00,41.2,31.5,29.90,NNW,332,0.0,9.0,68,0.00,,,0.09,VWS V14.01,2013-02-14 15:43:00,
2013-02-14 10:44:00,41.2,31.5,29.90,NNW,333,0.0,9.0,68,0.00,,,0.09,VWS V14.01,2013-02-14 15:44:00,
2013-02-14 10:45:00,41.2,31.8,29.90,NNW,332,0.0,9.0,69,0.00,,,0.09,VWS V14.01,2013-02-14 15:45:00,
2013-02-14 10:50:00,41.1,32.1,29.90,WNW,302,5.0,9.0,70,0.00,,,0.09,VWS V14.01,2013-02-14 15:50:00,
2013-02-14 10:51:00,41.1,32.1,29.90,WNW,302,0.0,9.0,70,0.00,,,0.09,VWS V14.01,2013-02-14 15:51:00,
2013-02-14 10:54:00,41.5,32.8,29.90,WNW,302,0.0,9.0,71,0.00,,,0.09,VWS V14.01,2013-02-14 15:54:00,
2013-02-14 10:57:00,41.6,32.9,29.90,WNW,286,0.0,9.0,71,0.00,,,0.09,VWS V14.01,2013-02-14 15:57:00,
2013-02-14 10:58:00,41.6,32.2,29.90,WNW,289,7.0,9.0,69,0.00,,,0.09,VWS V14.01,2013-02-14 15:58:00,
2013-02-14 11:00:00,41.8,32.4,29.89,NNW,328,0.0,9.0,69,0.00,,,0.09,VWS V14.01,2013-02-14 16:00:00,
2013-02-14 11:02:00,41.6,32.2,29.89,NNW,328,0.0,9.0,69,0.00,,,0.09,VWS V14.01,2013-02-14 16:02:00,
2013-02-14 11:03:00,41.8,32.4,29.89,NNW,328,0.0,9.0,69,0.00,,,0.09,VWS V14.01,2013-02-14 16:03:00,
2013-02-14 11:06:00,42.5,33.1,29.89,NNW,342,0.0,7.0,69,0.00,,,0.09,VWS V14.01,2013-02-14 16:06:00,
2013-02-14 11:10:00,42.5,33.1,29.89,NNW,336,0.0,7.0,69,0.00,,,0.09,VWS V14.01,2013-02-14 16:10:00,
2013-02-14 11:11:00,42.5,32.7,29.89,NNW,336,0.0,7.0,68,0.00,,,0.09,VWS V14.01,2013-02-14 16:11:00,
2013-02-14 11:13:00,42.2,32.4,29.89,NNW,336,0.0,7.0,68,0.00,,,0.09,VWS V14.01,2013-02-14 16:13:00,
2013-02-14 11:15:00,42.5,32.3,29.89,North,360,0.0,7.0,67,0.00,,,0.09,VWS V14.01,2013-02-14 16:15:00,
2013-02-14 11:17:00,42.6,32.4,29.90,WNW,302,4.0,7.0,67,0.00,,,0.09,VWS V14.01,2013-02-14 16:17:00,
2013-02-14 11:22:00,43.5,33.7,29.90,NNW,340,3.0,7.0,68,0.00,,,0.09,VWS V14.01,2013-02-14 16:22:00,
2013-02-14 11:23:00,43.5,32.9,29.90,NNW,340,0.0,7.0,66,0.00,,,0.09,VWS V14.01,2013-02-14 16:23:00,
2013-02-14 11:28:00,43.8,33.9,29.90,NNW,342,0.0,7.0,68,0.00,,,0.09,VWS V14.01,2013-02-14 16:28:00,
2013-02-14 11:30:00,44.3,33.7,29.90,NNW,338,0.0,7.0,66,0.00,,,0.09,VWS V14.01,2013-02-14 16:30:00,
2013-02-14 11:33:00,44.3,33.7,29.90,NNW,338,0.0,7.0,66,0.00,,,0.09,VWS V14.01,2013-02-14 16:33:00,
2013-02-14 11:35:00,44.3,32.9,29.90,NNW,338,0.0,0.0,64,0.00,,,0.09,VWS V14.01,2013-02-14 16:35:00,
2013-02-14 11:38:00,44.1,33.1,29.90,NNW,339,0.0,0.0,65,0.00,,,0.09,VWS V14.01,2013-02-14 16:38:00,
2013-02-14 11:40:00,43.9,32.9,29.90,NNW,342,0.0,0.0,65,0.00,,,0.09,VWS V14.01,2013-02-14 16:40:00,
2013-02-14 11:41:00,43.6,32.6,29.90,NNW,342,0.0,0.0,65,0.00,,,0.09,VWS V14.01,2013-02-14 16:41:00,
2013-02-14 11:44:00,43.2,32.6,29.90,ENE,62,3.0,4.0,66,0.00,,,0.09,VWS V14.01,2013-02-14 16:44:00,
2013-02-14 11:45:00,43.1,33.3,29.90,ENE,64,1.0,4.0,68,0.00,,,0.09,VWS V14.01,2013-02-14 16:45:00,
2013-02-14 11:47:00,42.8,33.0,29.90,ENE,71,0.0,4.0,68,0.00,,,0.09,VWS V14.01,2013-02-14 16:47:00,
2013-02-14 11:50:00,42.6,33.9,29.90,East,82,0.0,4.0,71,0.00,,,0.09,VWS V14.01,2013-02-14 16:50:00,
2013-02-14 11:52:00,43.2,34.5,29.90,East,83,2.0,4.0,71,0.00,,,0.09,VWS V14.01,2013-02-14 16:52:00,
2013-02-14 11:54:00,42.9,33.1,29.90,East,84,2.0,4.0,68,0.00,,,0.09,VWS V14.01,2013-02-14 16:54:00,
2013-02-14 11:56:00,42.8,33.7,29.90,East,85,0.0,4.0,70,0.00,,,0.09,VWS V14.01,2013-02-14 16:56:00,
2013-02-14 11:57:00,42.6,33.5,29.90,East,85,3.0,4.0,70,0.00,,,0.09,VWS V14.01,2013-02-14 16:57:00,
2013-02-14 11:59:00,42.3,33.2,29.90,East,86,3.0,4.0,70,0.00,,,0.09,VWS V14.01,2013-02-14 16:59:00,
2013-02-14 12:00:00,42.3,33.2,29.90,East,86,2.0,5.0,70,0.00,,,0.09,VWS V14.01,2013-02-14 17:00:00,
2013-02-14 12:03:00,41.9,32.8,29.90,East,90,5.0,6.0,70,0.00,,,0.09,VWS V14.01,2013-02-14 17:03:00,
2013-02-14 12:04:00,41.9,33.2,29.90,East,91,5.0,5.0,71,0.00,,,0.09,VWS V14.01,2013-02-14 17:04:00,
2013-02-14 12:06:00,42.2,33.8,29.90,East,93,4.0,7.0,72,0.00,,,0.09,VWS V14.01,2013-02-14 17:06:00,
2013-02-14 12:11:00,42.6,33.5,29.90,ESE,110,5.0,7.0,70,0.00,,,0.09,VWS V14.01,2013-02-14 17:11:00,
2013-02-14 12:12:00,42.6,33.5,29.90,ESE,111,4.0,7.0,70,0.00,,,0.09,VWS V14.01,2013-02-14 17:12:00,
2013-02-14 12:13:00,42.8,34.1,29.90,ESE,111,2.0,7.0,71,0.00,,,0.09,VWS V14.01,2013-02-14 17:13:00,
2013-02-14 12:16:00,43.1,33.6,29.90,ESE,111,5.0,7.0,69,0.00,,,0.09,VWS V14.01,2013-02-14 17:16:00,
2013-02-14 12:17:00,43.1,33.6,29.90,ESE,111,4.0,7.0,69,0.00,,,0.09,VWS V14.01,2013-02-14 17:17:00,
2013-02-14 12:18:00,43.3,34.2,29.90,ESE,111,2.0,7.0,70,0.00,,,0.09,VWS V14.01,2013-02-14 17:18:00,
2013-02-14 12:21:00,43.5,33.7,29.90,ESE,112,4.0,7.0,68,0.00,,,0.09,VWS V14.01,2013-02-14 17:21:00,
2013-02-14 12:23:00,43.3,33.1,29.90,ESE,112,2.0,7.0,67,0.00,,,0.09,VWS V14.01,2013-02-14 17:23:00,
2013-02-14 12:26:00,43.2,33.4,29.90,ESE,113,5.0,7.0,68,0.00,,,0.09,VWS V14.01,2013-02-14 17:26:00,
2013-02-14 12:27:00,43.1,33.3,29.90,ESE,113,5.0,7.0,68,0.00,,,0.09,VWS V14.01,2013-02-14 17:27:00,
2013-02-14 12:29:00,42.9,33.1,29.90,ESE,113,6.0,7.0,68,0.00,,,0.09,VWS V14.01,2013-02-14 17:29:00,
2013-02-14 12:30:00,43.2,33.7,29.90,ESE,117,5.0,8.0,69,0.00,,,0.09,VWS V14.01,2013-02-14 17:30:00,
2013-02-14 12:32:00,42.9,33.4,29.90,ESE,116,5.0,8.0,69,0.00,,,0.09,VWS V14.01,2013-02-14 17:32:00,
2013-02-14 12:33:00,43.1,34.0,29.90,ESE,117,5.0,8.0,70,0.00,,,0.09,VWS V14.01,2013-02-14 17:33:00,
2013-02-14 12:34:00,43.2,33.7,29.90,ESE,117,0.0,5.0,69,0.00,,,0.09,VWS V14.01,2013-02-14 17:34:00,
2013-02-14 12:38:00,43.6,33.8,29.90,ESE,113,6.0,7.0,68,0.00,,,0.09,VWS V14.01,2013-02-14 17:38:00,
2013-02-14 12:40:00,43.2,33.4,29.90,ESE,115,4.0,7.0,68,0.00,,,0.09,VWS V14.01,2013-02-14 17:40:00,
2013-02-14 12:43:00,43.3,34.2,29.90,ESE,115,7.0,7.0,70,0.00,,,0.09,VWS V14.01,2013-02-14 17:43:00,
2013-02-14 12:45:00,43.2,33.7,29.90,ESE,121,6.0,7.0,69,0.00,,,0.09,VWS V14.01,2013-02-14 17:45:00,
2013-02-14 12:48:00,43.8,34.7,29.89,ESE,119,5.0,7.0,70,0.00,,,0.09,VWS V14.01,2013-02-14 17:48:00,
2013-02-14 12:49:00,43.8,33.9,29.89,ESE,119,6.0,7.0,68,0.00,,,0.09,VWS V14.01,2013-02-14 17:49:00,
2013-02-14 12:51:00,43.5,34.0,29.89,ESE,118,7.0,8.0,69,0.00,,,0.09,VWS V14.01,2013-02-14 17:51:00,
2013-02-14 12:53:00,43.6,34.1,29.89,SE,133,6.0,9.0,69,0.00,,,0.09,VWS V14.01,2013-02-14 17:53:00,
2013-02-14 12:54:00,43.6,33.8,29.89,SE,130,5.0,9.0,68,0.00,,,0.09,VWS V14.01,2013-02-14 17:54:00,
2013-02-14 12:56:00,43.9,34.4,29.89,SE,129,8.0,9.0,69,0.00,,,0.09,VWS V14.01,2013-02-14 17:56:00,
2013-02-14 12:58:00,43.9,34.0,29.89,ESE,121,8.0,9.0,68,0.00,,,0.09,VWS V14.01,2013-02-14 17:58:00,
2013-02-14 13:00:00,43.8,34.7,29.89,ESE,105,5.0,9.0,70,0.00,,,0.09,VWS V14.01,2013-02-14 18:00:00,
2013-02-14 13:01:00,43.9,34.8,29.89,SE,128,7.0,9.0,70,0.00,,,0.09,VWS V14.01,2013-02-14 18:01:00,
2013-02-14 13:05:00,43.6,34.8,29.89,ESE,119,5.0,7.0,71,0.00,,,0.09,VWS V14.01,2013-02-14 18:05:00,
2013-02-14 13:06:00,43.8,35.4,29.89,SSE,149,2.0,8.0,72,0.00,,,0.09,VWS V14.01,2013-02-14 18:06:00,
2013-02-14 13:07:00,43.8,35.0,29.89,SE,135,8.0,8.0,71,0.00,,,0.09,VWS V14.01,2013-02-14 18:07:00,
2013-02-14 13:11:00,43.8,35.0,29.89,SE,130,5.0,9.0,71,0.00,,,0.09,VWS V14.01,2013-02-14 18:11:00,
2013-02-14 13:13:00,43.6,34.8,29.89,SE,124,2.0,9.0,71,0.00,,,0.09,VWS V14.01,2013-02-14 18:13:00,
2013-02-14 13:15:00,43.3,34.5,29.89,ESE,110,5.0,9.0,71,0.00,,,0.09,VWS V14.01,2013-02-14 18:15:00,
2013-02-14 13:16:00,43.5,34.7,29.89,ESE,119,2.0,9.0,71,0.00,,,0.09,VWS V14.01,2013-02-14 18:16:00,
2013-02-14 13:20:00,43.2,34.8,29.89,SE,133,4.0,9.0,72,0.00,,,0.09,VWS V14.01,2013-02-14 18:20:00,
2013-02-14 13:21:00,43.3,35.6,29.89,ESE,115,8.0,9.0,74,0.00,,,0.09,VWS V14.01,2013-02-14 18:21:00,
2013-02-14 13:22:00,43.6,36.2,29.89,ESE,117,6.0,9.0,75,0.00,,,0.09,VWS V14.01,2013-02-14 18:22:00,
2013-02-14 13:25:00,43.8,35.7,29.89,SE,126,8.0,9.0,73,0.00,,,0.09,VWS V14.01,2013-02-14 18:25:00,
2013-02-14 13:27:00,43.6,35.5,29.89,SE,124,7.0,11.0,73,0.00,,,0.09,VWS V14.01,2013-02-14 18:27:00,
2013-02-14 13:28:00,43.5,35.8,29.89,SE,125,11.0,11.0,74,0.00,,,0.09,VWS V14.01,2013-02-14 18:28:00,
2013-02-14 13:29:00,43.3,35.6,29.89,SE,126,9.0,11.0,74,0.00,,,0.09,VWS V14.01,2013-02-14 18:29:00,
2013-02-14 13:30:00,43.2,35.8,29.88,SE,124,6.0,11.0,75,0.00,,,0.09,VWS V14.01,2013-02-14 18:30:00,
2013-02-14 13:31:00,43.2,35.8,29.89,SE,131,7.0,11.0,75,0.00,,,0.09,VWS V14.01,2013-02-14 18:31:00,
2013-02-14 13:32:00,43.2,35.8,29.89,SE,125,5.0,11.0,75,0.00,,,0.09,VWS V14.01,2013-02-14 18:32:00,
2013-02-14 13:33:00,43.2,35.8,29.88,SE,124,6.0,11.0,75,0.00,,,0.09,VWS V14.01,2013-02-14 18:33:00,
2013-02-14 13:39:00,43.1,36.1,29.88,ESE,123,7.0,9.0,76,0.00,,,0.09,VWS V14.01,2013-02-14 18:39:00,
2013-02-14 13:40:00,43.1,36.1,29.88,SE,138,4.0,9.0,76,0.00,,,0.09,VWS V14.01,2013-02-14 18:40:00,
2013-02-14 13:42:00,43.1,35.7,29.88,SE,135,4.0,9.0,75,0.00,,,0.09,VWS V14.01,2013-02-14 18:42:00,
2013-02-14 13:44:00,43.1,35.7,29.88,SE,137,6.0,9.0,75,0.00,,,0.09,VWS V14.01,2013-02-14 18:44:00,
2013-02-14 13:47:00,43.2,35.8,29.88,SE,130,5.0,9.0,75,0.00,,,0.09,VWS V14.01,2013-02-14 18:47:00,
2013-02-14 13:49:00,43.3,36.3,29.89,SSE,149,5.0,9.0,76,0.00,,,0.09,VWS V14.01,2013-02-14 18:49:00,
2013-02-14 13:53:00,43.5,36.5,29.89,SE,140,10.0,12.0,76,0.00,,,0.09,VWS V14.01,2013-02-14 18:53:00,
2013-02-14 13:54:00,43.3,35.6,29.89,SE,142,10.0,12.0,74,0.00,,,0.09,VWS V14.01,2013-02-14 18:54:00,
2013-02-14 13:56:00,43.2,35.8,29.89,SSE,147,9.0,12.0,75,0.00,,,0.09,VWS V14.01,2013-02-14 18:56:00,
2013-02-14 14:00:00,43.3,36.3,29.89,SE,146,11.0,12.0,76,0.00,,,0.09,VWS V14.01,2013-02-14 19:00:00,
2013-02-14 14:01:00,43.5,36.1,29.89,SSE,150,10.0,12.0,75,0.00,,,0.09,VWS V14.01,2013-02-14 19:01:00,
2013-02-14 14:02:00,43.5,36.1,29.88,SSE,157,7.0,12.0,75,0.00,,,0.09,VWS V14.01,2013-02-14 19:02:00,
2013-02-14 14:06:00,43.1,35.0,29.88,SSE,148,8.0,12.0,73,0.00,,,0.09,VWS V14.01,2013-02-14 19:06:00,
2013-02-14 14:11:00,42.8,35.1,29.88,ESE,121,6.0,12.0,74,0.00,,,0.09,VWS V14.01,2013-02-14 19:11:00,
2013-02-14 14:12:00,42.9,34.8,29.88,SE,144,2.0,12.0,73,0.00,,,0.09,VWS V14.01,2013-02-14 19:12:00,
2013-02-14 14:13:00,43.1,35.0,29.88,SSE,163,7.0,12.0,73,0.00,,,0.09,VWS V14.01,2013-02-14 19:13:00,
2013-02-14 14:17:00,43.1,34.7,29.89,SE,146,6.0,12.0,72,0.00,,,0.09,VWS V14.01,2013-02-14 19:17:00,
2013-02-14 14:18:00,43.2,34.8,29.89,South,170,9.0,12.0,72,0.00,,,0.09,VWS V14.01,2013-02-14 19:18:00,
2013-02-14 14:19:00,43.2,34.8,29.89,SSE,157,6.0,12.0,72,0.00,,,0.09,VWS V14.01,2013-02-14 19:19:00,
2013-02-14 14:23:00,43.5,35.4,29.89,South,178,4.0,12.0,73,0.00,,,0.09,VWS V14.01,2013-02-14 19:23:00,
2013-02-14 14:25:00,43.3,34.9,29.89,SSE,167,5.0,12.0,72,0.00,,,0.09,VWS V14.01,2013-02-14 19:25:00,
2013-02-14 14:26:00,43.5,35.1,29.89,SSE,152,8.0,12.0,72,0.00,,,0.09,VWS V14.01,2013-02-14 19:26:00,
2013-02-14 14:28:00,43.3,34.9,29.89,SSE,150,5.0,12.0,72,0.00,,,0.09,VWS V14.01,2013-02-14 19:28:00,
2013-02-14 14:30:00,43.2,34.8,29.90,SE,143,9.0,12.0,72,0.00,,,0.09,VWS V14.01,2013-02-14 19:30:00,
2013-02-14 14:32:00,43.3,34.9,29.90,SSE,155,7.0,12.0,72,0.00,,,0.09,VWS V14.01,2013-02-14 19:32:00,
2013-02-14 14:33:00,43.2,34.8,29.90,South,169,6.0,9.0,72,0.00,,,0.09,VWS V14.01,2013-02-14 19:33:00,
2013-02-14 14:35:00,43.2,34.8,29.90,SSE,164,5.0,9.0,72,0.00,,,0.09,VWS V14.01,2013-02-14 19:35:00,
2013-02-14 14:36:00,43.2,34.8,29.90,SSE,163,7.0,9.0,72,0.00,,,0.09,VWS V14.01,2013-02-14 19:36:00,
2013-02-14 14:38:00,43.3,34.9,29.90,South,170,7.0,11.0,72,0.00,,,0.09,VWS V14.01,2013-02-14 19:38:00,
2013-02-14 14:39:00,43.3,34.9,29.90,SSE,160,7.0,11.0,72,0.00,,,0.09,VWS V14.01,2013-02-14 19:39:00,
2013-02-14 14:41:00,43.2,34.8,29.90,SSE,148,7.0,11.0,72,0.00,,,0.09,VWS V14.01,2013-02-14 19:41:00,
2013-02-14 14:44:00,42.9,34.2,29.90,SSE,159,7.0,12.0,71,0.00,,,0.09,VWS V14.01,2013-02-14 19:44:00,
2013-02-14 14:46:00,43.1,34.0,29.90,SSE,162,7.0,12.0,70,0.00,,,0.09,VWS V14.01,2013-02-14 19:46:00,
2013-02-14 14:47:00,43.1,34.0,29.90,SSE,158,6.0,12.0,70,0.00,,,0.09,VWS V14.01,2013-02-14 19:47:00,
2013-02-14 14:48:00,43.1,34.0,29.90,SSE,166,6.0,12.0,70,0.00,,,0.09,VWS V14.01,2013-02-14 19:48:00,
2013-02-14 14:52:00,42.9,33.8,29.90,SSE,153,2.0,12.0,70,0.00,,,0.09,VWS V14.01,2013-02-14 19:52:00,
2013-02-14 14:53:00,42.9,33.8,29.90,SE,144,4.0,12.0,70,0.00,,,0.09,VWS V14.01,2013-02-14 19:53:00,
2013-02-14 14:57:00,42.8,33.7,29.90,SSE,153,4.0,12.0,70,0.00,,,0.09,VWS V14.01,2013-02-14 19:57:00,
2013-02-14 14:58:00,42.8,33.3,29.90,SSE,155,6.0,12.0,69,0.00,,,0.09,VWS V14.01,2013-02-14 19:58:00,
2013-02-14 15:00:00,42.8,33.3,29.90,SSE,158,6.0,12.0,69,0.00,,,0.09,VWS V14.01,2013-02-14 20:00:00,
2013-02-14 15:02:00,42.6,33.2,29.90,SSE,149,7.0,12.0,69,0.00,,,0.09,VWS V14.01,2013-02-14 20:02:00,
2013-02-14 15:03:00,42.6,33.2,29.90,South,171,6.0,7.0,69,0.00,,,0.09,VWS V14.01,2013-02-14 20:03:00,
2013-02-14 15:08:00,42.3,32.9,29.90,SSE,147,5.0,10.0,69,0.00,,,0.09,VWS V14.01,2013-02-14 20:08:00,
2013-02-14 15:09:00,42.3,32.9,29.90,SSE,163,7.0,10.0,69,0.00,,,0.09,VWS V14.01,2013-02-14 20:09:00,
2013-02-14 15:13:00,42.3,32.9,29.90,SSE,147,7.0,10.0,69,0.00,,,0.09,VWS V14.01,2013-02-14 20:13:00,
2013-02-14 15:16:00,42.3,32.9,29.90,SE,143,9.0,12.0,69,0.00,,,0.09,VWS V14.01,2013-02-14 20:16:00,
2013-02-14 15:17:00,42.3,32.9,29.90,SSE,159,7.0,12.0,69,0.00,,,0.09,VWS V14.01,2013-02-14 20:17:00,
2013-02-14 15:19:00,42.3,32.5,29.90,SSE,158,7.0,12.0,68,0.00,,,0.09,VWS V14.01,2013-02-14 20:19:00,
2013-02-14 15:23:00,42.3,32.5,29.90,SSE,163,5.0,12.0,68,0.00,,,0.09,VWS V14.01,2013-02-14 20:23:00,
2013-02-14 15:24:00,42.3,32.5,29.90,SSE,158,6.0,12.0,68,0.00,,,0.09,VWS V14.01,2013-02-14 20:24:00,
2013-02-14 15:28:00,42.5,33.1,29.90,SSE,158,5.0,12.0,69,0.00,,,0.09,VWS V14.01,2013-02-14 20:28:00,
2013-02-14 15:30:00,42.5,33.1,29.90,SSE,157,7.0,12.0,69,0.00,,,0.09,VWS V14.01,2013-02-14 20:30:00,
2013-02-14 15:33:00,42.5,33.1,29.90,SSE,167,4.0,12.0,69,0.00,,,0.09,VWS V14.01,2013-02-14 20:33:00,
2013-02-14 15:34:00,42.5,33.1,29.90,South,182,5.0,8.0,69,0.00,,,0.09,VWS V14.01,2013-02-14 20:34:00,
2013-02-14 15:35:00,42.5,33.1,29.90,SSE,167,6.0,9.0,69,0.00,,,0.09,VWS V14.01,2013-02-14 20:35:00,
2013-02-14 15:36:00,42.5,33.1,29.90,South,171,2.0,9.0,69,0.00,,,0.09,VWS V14.01,2013-02-14 20:36:00,
2013-02-14 15:39:00,42.3,32.5,29.90,SSE,160,5.0,9.0,68,0.00,,,0.09,VWS V14.01,2013-02-14 20:39:00,
2013-02-14 15:40:00,42.3,32.5,29.90,SSE,159,7.0,9.0,68,0.00,,,0.09,VWS V14.01,2013-02-14 20:40:00,
2013-02-14 15:41:00,42.3,32.5,29.90,SSE,160,7.0,9.0,68,0.00,,,0.09,VWS V14.01,2013-02-14 20:41:00,
2013-02-14 15:43:00,42.3,32.5,29.90,SSE,162,6.0,9.0,68,0.00,,,0.09,VWS V14.01,2013-02-14 20:43:00,
2013-02-14 15:45:00,42.5,33.1,29.90,SSE,168,4.0,10.0,69,0.00,,,0.09,VWS V14.01,2013-02-14 20:45:00,
2013-02-14 15:49:00,42.5,33.4,29.90,SSE,163,2.0,11.0,70,0.00,,,0.09,VWS V14.01,2013-02-14 20:49:00,
2013-02-14 15:50:00,42.5,33.4,29.90,SSE,147,4.0,11.0,70,0.00,,,0.09,VWS V14.01,2013-02-14 20:50:00,
2013-02-14 15:55:00,42.3,32.9,29.90,South,185,4.0,11.0,69,0.00,,,0.09,VWS V14.01,2013-02-14 20:55:00,
2013-02-14 15:56:00,42.3,32.9,29.90,South,174,5.0,13.0,69,0.00,,,0.09,VWS V14.01,2013-02-14 20:56:00,
2013-02-14 15:58:00,42.3,32.9,29.90,SSE,148,7.0,13.0,69,0.00,,,0.09,VWS V14.01,2013-02-14 20:58:00,
2013-02-14 16:00:00,42.3,33.2,29.90,SSE,166,6.0,13.0,70,0.00,,,0.09,VWS V14.01,2013-02-14 21:00:00,
2013-02-14 16:01:00,42.3,33.2,29.90,South,173,7.0,13.0,70,0.00,,,0.09,VWS V14.01,2013-02-14 21:01:00,
2013-02-14 16:03:00,42.3,33.2,29.90,SSW,192,11.0,13.0,70,0.00,,,0.09,VWS V14.01,2013-02-14 21:03:00,
2013-02-14 16:05:00,42.3,33.2,29.90,South,175,8.0,14.0,70,0.00,,,0.09,VWS V14.01,2013-02-14 21:05:00,
2013-02-14 16:07:00,42.3,32.9,29.90,SSW,192,5.0,14.0,69,0.00,,,0.09,VWS V14.01,2013-02-14 21:07:00,
2013-02-14 16:09:00,42.2,32.8,29.90,South,191,3.0,14.0,69,0.00,,,0.09,VWS V14.01,2013-02-14 21:09:00,
2013-02-14 16:11:00,42.2,32.8,29.90,SSE,155,6.0,14.0,69,0.00,,,0.09,VWS V14.01,2013-02-14 21:11:00,
2013-02-14 16:16:00,42.2,32.8,29.90,South,188,6.0,14.0,69,0.00,,,0.09,VWS V14.01,2013-02-14 21:16:00,
2013-02-14 16:17:00,42.2,32.8,29.90,SSW,195,7.0,14.0,69,0.00,,,0.09,VWS V14.01,2013-02-14 21:17:00,
2013-02-14 16:21:00,41.9,32.8,29.92,SSW,192,8.0,14.0,70,0.00,,,0.09,VWS V14.01,2013-02-14 21:21:00,
2013-02-14 16:22:00,41.9,32.8,29.92,SSW,213,13.0,14.0,70,0.00,,,0.09,VWS V14.01,2013-02-14 21:22:00,
2013-02-14 16:23:00,41.9,32.8,29.92,SSW,204,9.0,14.0,70,0.00,,,0.09,VWS V14.01,2013-02-14 21:23:00,
2013-02-14 16:27:00,41.8,33.1,29.92,SSW,192,17.0,17.0,71,0.00,,,0.09,VWS V14.01,2013-02-14 21:27:00,
2013-02-14 16:28:00,41.8,33.1,29.92,SSW,202,13.0,17.0,71,0.00,,,0.09,VWS V14.01,2013-02-14 21:28:00,
2013-02-14 16:30:00,41.8,33.5,29.92,South,187,5.0,17.0,72,0.00,,,0.09,VWS V14.01,2013-02-14 21:30:00,
2013-02-14 16:32:00,41.8,33.5,29.92,SSW,201,12.0,17.0,72,0.00,,,0.09,VWS V14.01,2013-02-14 21:32:00,
2013-02-14 16:39:00,41.8,33.8,29.92,South,174,6.0,13.0,73,0.00,,,0.09,VWS V14.01,2013-02-14 21:39:00,
2013-02-14 16:40:00,41.8,33.8,29.92,SSE,152,6.0,13.0,73,0.00,,,0.09,VWS V14.01,2013-02-14 21:40:00,
2013-02-14 16:43:00,41.8,33.8,29.92,South,177,11.0,13.0,73,0.00,,,0.09,VWS V14.01,2013-02-14 21:43:00,
2013-02-14 16:44:00,41.8,34.1,29.92,South,170,6.0,14.0,74,0.00,,,0.09,VWS V14.01,2013-02-14 21:44:00,
2013-02-14 16:46:00,41.6,33.9,29.92,South,186,9.0,14.0,74,0.00,,,0.09,VWS V14.01,2013-02-14 21:46:00,
2013-02-14 16:51:00,41.6,34.3,29.92,SSW,195,13.0,14.0,75,0.00,,,0.09,VWS V14.01,2013-02-14 21:51:00,
2013-02-14 16:52:00,41.6,34.3,29.92,South,190,4.0,14.0,75,0.00,,,0.09,VWS V14.01,2013-02-14 21:52:00,
2013-02-14 16:53:00,41.5,34.2,29.92,SSW,207,1.0,14.0,75,0.00,,,0.09,VWS V14.01,2013-02-14 21:53:00,
2013-02-14 16:59:00,41.3,34.3,29.92,South,180,6.0,14.0,76,0.00,,,0.09,VWS V14.01,2013-02-14 21:59:00,
2013-02-14 17:00:00,41.2,34.5,29.92,South,183,6.0,14.0,77,0.00,,,0.09,VWS V14.01,2013-02-14 22:00:00,
2013-02-14 17:01:00,41.3,34.3,29.92,South,179,5.0,14.0,76,0.00,,,0.09,VWS V14.01,2013-02-14 22:01:00,
2013-02-14 17:03:00,41.2,34.5,29.92,South,183,6.0,14.0,77,0.00,,,0.09,VWS V14.01,2013-02-14 22:03:00,
2013-02-14 17:05:00,41.2,34.5,29.92,SSW,201,5.0,9.0,77,0.00,,,0.09,VWS V14.01,2013-02-14 22:05:00,
2013-02-14 17:07:00,41.2,34.5,29.92,SSW,202,5.0,10.0,77,0.00,,,0.09,VWS V14.01,2013-02-14 22:07:00,
2013-02-14 17:10:00,41.2,34.9,29.92,SSW,200,6.0,12.0,78,0.00,,,0.09,VWS V14.01,2013-02-14 22:10:00,
2013-02-14 17:12:00,41.1,34.8,29.92,SW,220,5.0,12.0,78,0.00,,,0.09,VWS V14.01,2013-02-14 22:12:00,
2013-02-14 17:13:00,41.1,34.8,29.92,SSW,205,4.0,12.0,78,0.00,,,0.09,VWS V14.01,2013-02-14 22:13:00,
2013-02-14 17:14:00,41.1,34.8,29.92,SSW,195,7.0,12.0,78,0.00,,,0.09,VWS V14.01,2013-02-14 22:14:00,
2013-02-14 17:16:00,41.1,35.1,29.92,South,180,2.0,12.0,79,0.00,,,0.09,VWS V14.01,2013-02-14 22:16:00,
2013-02-14 17:18:00,40.9,34.9,29.92,SSW,202,6.0,12.0,79,0.00,,,0.09,VWS V14.01,2013-02-14 22:18:00,
2013-02-14 17:20:00,40.9,34.9,29.92,SSW,203,3.0,12.0,79,0.00,,,0.09,VWS V14.01,2013-02-14 22:20:00,
2013-02-14 17:23:00,40.9,35.2,29.92,SSW,205,6.0,12.0,80,0.00,,,0.09,VWS V14.01,2013-02-14 22:23:00,
2013-02-14 17:24:00,40.9,35.2,29.92,SSW,212,2.0,12.0,80,0.00,,,0.09,VWS V14.01,2013-02-14 22:24:00,
2013-02-14 17:25:00,40.8,35.1,29.92,SSW,205,8.0,12.0,80,0.00,,,0.09,VWS V14.01,2013-02-14 22:25:00,
2013-02-14 17:26:00,40.8,35.1,29.92,SSW,206,2.0,12.0,80,0.00,,,0.09,VWS V14.01,2013-02-14 22:26:00,
2013-02-14 17:29:00,40.6,35.2,29.92,SSW,193,9.0,12.0,81,0.00,,,0.09,VWS V14.01,2013-02-14 22:29:00,
2013-02-14 17:30:00,40.6,35.2,29.92,SSW,196,4.0,12.0,81,0.00,,,0.09,VWS V14.01,2013-02-14 22:30:00,
2013-02-14 17:32:00,40.6,35.2,29.92,SSW,196,4.0,12.0,81,0.00,,,0.09,VWS V14.01,2013-02-14 22:32:00,
2013-02-14 17:33:00,40.5,35.1,29.92,SSW,196,5.0,12.0,81,0.00,,,0.09,VWS V14.01,2013-02-14 22:33:00,
2013-02-14 17:35:00,40.5,35.1,29.92,SSW,210,10.0,10.0,81,0.00,,,0.09,VWS V14.01,2013-02-14 22:35:00,
2013-02-14 17:37:00,40.5,35.5,29.92,South,190,9.0,15.0,82,0.00,,,0.09,VWS V14.01,2013-02-14 22:37:00,
2013-02-14 17:39:00,40.5,35.5,29.92,SSW,200,7.0,15.0,82,0.00,,,0.09,VWS V14.01,2013-02-14 22:39:00,
2013-02-14 17:40:00,40.3,35.2,29.92,SSW,197,4.0,15.0,82,0.00,,,0.09,VWS V14.01,2013-02-14 22:40:00,
2013-02-14 17:41:00,40.3,35.2,29.92,SSW,198,7.0,15.0,82,0.00,,,0.09,VWS V14.01,2013-02-14 22:41:00,
2013-02-14 17:42:00,40.3,35.6,29.92,SSW,198,4.0,15.0,83,0.00,,,0.09,VWS V14.01,2013-02-14 22:42:00,
2013-02-14 17:46:00,40.3,35.6,29.92,SSW,192,0.0,15.0,83,0.00,,,0.09,VWS V14.01,2013-02-14 22:46:00,
2013-02-14 17:47:00,40.3,35.6,29.91,SSW,206,8.0,15.0,83,0.00,,,0.09,VWS V14.01,2013-02-14 22:47:00,
2013-02-14 17:48:00,40.2,35.8,29.91,SSW,198,6.0,15.0,84,0.00,,,0.09,VWS V14.01,2013-02-14 22:48:00,
2013-02-14 17:52:00,40.2,35.8,29.91,South,178,6.0,15.0,84,0.00,,,0.09,VWS V14.01,2013-02-14 22:52:00,
2013-02-14 17:53:00,40.2,35.8,29.91,SW,214,7.0,15.0,84,0.00,,,0.09,VWS V14.01,2013-02-14 22:53:00,
2013-02-14 17:55:00,40.2,35.8,29.91,South,189,0.0,15.0,84,0.00,,,0.09,VWS V14.01,2013-02-14 22:55:00,
2013-02-14 17:57:00,40.2,35.8,29.91,South,190,6.0,15.0,84,0.00,,,0.09,VWS V14.01,2013-02-14 22:57:00,
2013-02-14 17:59:00,40.2,36.1,29.91,South,190,5.0,15.0,85,0.00,,,0.09,VWS V14.01,2013-02-14 22:59:00,
2013-02-14 18:00:00,40.1,36.0,29.92,South,191,5.0,15.0,85,0.00,,,0.09,VWS V14.01,2013-02-14 23:00:00,
2013-02-14 18:03:00,40.1,36.0,29.92,South,191,5.0,15.0,85,0.00,,,0.09,VWS V14.01,2013-02-14 23:03:00,
2013-02-14 18:04:00,40.1,36.0,29.92,South,191,2.0,5.0,85,0.00,,,0.09,VWS V14.01,2013-02-14 23:04:00,
2013-02-14 18:05:00,39.9,35.8,29.92,South,191,6.0,6.0,85,0.00,,,0.09,VWS V14.01,2013-02-14 23:05:00,
2013-02-14 18:07:00,39.9,35.8,29.92,South,191,4.0,7.0,85,0.00,,,0.09,VWS V14.01,2013-02-14 23:07:00,
2013-02-14 18:10:00,39.8,35.7,29.92,SW,218,6.0,9.0,85,0.00,,,0.09,VWS V14.01,2013-02-14 23:10:00,
2013-02-14 18:12:00,39.6,35.5,29.92,SSW,195,0.0,9.0,85,0.00,,,0.09,VWS V14.01,2013-02-14 23:12:00,
2013-02-14 18:13:00,39.6,35.5,29.92,SSW,196,3.0,9.0,85,0.00,,,0.09,VWS V14.01,2013-02-14 23:13:00,
2013-02-14 18:15:00,39.5,35.4,29.92,SSW,196,4.0,9.0,85,0.00,,,0.09,VWS V14.01,2013-02-14 23:15:00,
2013-02-14 18:18:00,39.5,35.4,29.93,South,186,6.0,9.0,85,0.00,,,0.09,VWS V14.01,2013-02-14 23:18:00,
2013-02-14 18:21:00,39.3,35.2,29.93,SSW,198,0.0,9.0,85,0.00,,,0.09,VWS V14.01,2013-02-14 23:21:00,
2013-02-14 18:22:00,39.3,35.2,29.93,SSW,198,7.0,9.0,85,0.00,,,0.09,VWS V14.01,2013-02-14 23:22:00,
2013-02-14 18:23:00,39.3,35.2,29.93,SSW,199,3.0,9.0,85,0.00,,,0.09,VWS V14.01,2013-02-14 23:23:00,
2013-02-14 18:24:00,39.3,35.2,29.93,SSW,199,3.0,9.0,85,0.00,,,0.09,VWS V14.01,2013-02-14 23:24:00,
2013-02-14 18:28:00,39.3,35.2,29.93,SSW,199,6.0,9.0,85,0.00,,,0.09,VWS V14.01,2013-02-14 23:28:00,
2013-02-14 18:29:00,39.3,35.2,29.93,SSW,199,2.0,9.0,85,0.00,,,0.09,VWS V14.01,2013-02-14 23:29:00,
2013-02-14 18:30:00,39.2,35.1,29.93,SSW,199,2.0,9.0,85,0.00,,,0.09,VWS V14.01,2013-02-14 23:30:00,
2013-02-14 18:33:00,39.2,35.1,29.93,SSW,211,6.0,9.0,85,0.00,,,0.09,VWS V14.01,2013-02-14 23:33:00,
2013-02-14 18:35:00,39.2,35.1,29.93,SSW,208,4.0,9.0,85,0.00,,,0.09,VWS V14.01,2013-02-14 23:35:00,
2013-02-14 18:38:00,39.2,35.1,29.93,SSW,207,4.0,9.0,85,0.00,,,0.09,VWS V14.01,2013-02-14 23:38:00,
2013-02-14 18:40:00,39.2,35.1,29.93,SW,218,10.0,10.0,85,0.00,,,0.09,VWS V14.01,2013-02-14 23:40:00,
2013-02-14 18:43:00,39.3,35.2,29.93,SW,231,9.0,11.0,85,0.00,,,0.09,VWS V14.01,2013-02-14 23:43:00,
2013-02-14 18:44:00,39.3,35.5,29.93,SW,219,11.0,11.0,86,0.00,,,0.09,VWS V14.01,2013-02-14 23:44:00,
2013-02-14 18:46:00,39.3,35.5,29.93,SW,224,9.0,11.0,86,0.00,,,0.09,VWS V14.01,2013-02-14 23:46:00,
2013-02-14 18:49:00,39.3,35.5,29.94,SW,219,4.0,11.0,86,0.00,,,0.09,VWS V14.01,2013-02-14 23:49:00,
2013-02-14 18:52:00,39.2,35.4,29.94,SSW,213,5.0,11.0,86,0.00,,,0.09,VWS V14.01,2013-02-14 23:52:00,
2013-02-14 18:53:00,39.2,35.4,29.94,SW,215,7.0,11.0,86,0.00,,,0.09,VWS V14.01,2013-02-14 23:53:00,
2013-02-14 18:55:00,39.2,35.4,29.94,SSW,205,0.0,11.0,86,0.00,,,0.09,VWS V14.01,2013-02-14 23:55:00,
2013-02-14 18:59:00,39.2,35.4,29.94,SSW,209,6.0,11.0,86,0.00,,,0.09,VWS V14.01,2013-02-14 23:59:00,
2013-02-14 19:00:00,39.2,35.4,29.94,SSW,209,5.0,11.0,86,0.00,,,0.09,VWS V14.01,2013-02-15 00:00:00,
2013-02-14 19:01:00,39.2,35.4,29.94,SSW,209,5.0,11.0,86,0.00,,,0.09,VWS V14.01,2013-02-15 00:01:00,
2013-02-14 19:06:00,39.1,35.3,29.93,SW,217,0.0,7.0,86,0.00,,,0.09,VWS V14.01,2013-02-15 00:06:00,
2013-02-14 19:07:00,39.1,35.3,29.93,SW,217,0.0,7.0,86,0.00,,,0.09,VWS V14.01,2013-02-15 00:07:00,
2013-02-14 19:08:00,39.1,35.3,29.93,SW,217,1.0,7.0,86,0.00,,,0.09,VWS V14.01,2013-02-15 00:08:00,
2013-02-14 19:12:00,38.9,35.1,29.93,SW,217,5.0,7.0,86,0.00,,,0.09,VWS V14.01,2013-02-15 00:12:00,
2013-02-14 19:13:00,38.9,35.1,29.93,SW,217,3.0,7.0,86,0.00,,,0.09,VWS V14.01,2013-02-15 00:13:00,
2013-02-14 19:14:00,38.9,35.1,29.93,SW,217,2.0,7.0,86,0.00,,,0.09,VWS V14.01,2013-02-15 00:14:00,
2013-02-14 19:18:00,38.8,35.0,29.94,SW,217,3.0,7.0,86,0.00,,,0.09,VWS V14.01,2013-02-15 00:18:00,
2013-02-14 19:19:00,38.8,35.0,29.94,SW,217,0.0,7.0,86,0.00,,,0.09,VWS V14.01,2013-02-15 00:19:00,
2013-02-14 19:20:00,38.8,35.0,29.94,SW,217,6.0,8.0,86,0.00,,,0.09,VWS V14.01,2013-02-15 00:20:00,
2013-02-14 19:23:00,38.6,34.8,29.94,SW,218,7.0,8.0,86,0.00,,,0.09,VWS V14.01,2013-02-15 00:23:00,
2013-02-14 19:25:00,38.6,34.8,29.94,SW,218,4.0,8.0,86,0.00,,,0.09,VWS V14.01,2013-02-15 00:25:00,
2013-02-14 19:26:00,38.6,34.8,29.94,SW,218,5.0,8.0,86,0.00,,,0.09,VWS V14.01,2013-02-15 00:26:00,
2013-02-14 19:28:00,38.6,34.8,29.94,SW,218,4.0,8.0,86,0.00,,,0.09,VWS V14.01,2013-02-15 00:28:00,
2013-02-14 19:30:00,38.6,34.8,29.94,SW,218,0.0,8.0,86,0.00,,,0.09,VWS V14.01,2013-02-15 00:30:00,
2013-02-14 19:34:00,38.5,34.7,29.95,SW,218,4.0,7.0,86,0.00,,,0.09,VWS V14.01,2013-02-15 00:34:00,
2013-02-14 19:36:00,38.5,34.7,29.95,SW,218,4.0,7.0,86,0.00,,,0.09,VWS V14.01,2013-02-15 00:36:00,
2013-02-14 19:38:00,38.5,34.7,29.95,SW,218,3.0,7.0,86,0.00,,,0.09,VWS V14.01,2013-02-15 00:38:00,
2013-02-14 19:41:00,38.5,35.0,29.95,SW,218,0.0,7.0,87,0.00,,,0.09,VWS V14.01,2013-02-15 00:41:00,
2013-02-14 19:43:00,38.3,34.8,29.95,SW,219,2.0,9.0,87,0.00,,,0.09,VWS V14.01,2013-02-15 00:43:00,
2013-02-14 19:44:00,38.3,34.8,29.95,SW,219,4.0,9.0,87,0.00,,,0.09,VWS V14.01,2013-02-15 00:44:00,
2013-02-14 19:45:00,38.3,34.8,29.95,SW,219,3.0,9.0,87,0.00,,,0.09,VWS V14.01,2013-02-15 00:45:00,
2013-02-14 19:47:00,38.3,34.8,29.95,SW,219,5.0,9.0,87,0.00,,,0.09,VWS V14.01,2013-02-15 00:47:00,
2013-02-14 19:51:00,38.3,34.8,29.94,SSW,207,5.0,9.0,87,0.00,,,0.09,VWS V14.01,2013-02-15 00:51:00,
2013-02-14 19:52:00,38.2,34.7,29.94,SSW,209,7.0,9.0,87,0.00,,,0.09,VWS V14.01,2013-02-15 00:52:00,
2013-02-14 19:53:00,38.2,34.7,29.94,SSW,205,6.0,9.0,87,0.00,,,0.09,VWS V14.01,2013-02-15 00:53:00,
2013-02-14 19:54:00,38.2,34.7,29.94,SSW,206,3.0,9.0,87,0.00,,,0.09,VWS V14.01,2013-02-15 00:54:00,
2013-02-14 19:58:00,38.2,34.7,29.94,SSW,208,4.0,9.0,87,0.00,,,0.09,VWS V14.01,2013-02-15 00:58:00,
2013-02-14 20:00:00,38.2,34.7,29.94,SW,217,5.0,9.0,87,0.00,,,0.09,VWS V14.01,2013-02-15 01:00:00,
2013-02-14 20:03:00,38.2,34.7,29.94,SSW,210,7.0,7.0,87,0.00,,,0.09,VWS V14.01,2013-02-15 01:03:00,
2013-02-14 20:05:00,38.0,34.5,29.94,SSW,209,4.0,7.0,87,0.00,,,0.09,VWS V14.01,2013-02-15 01:05:00,
2013-02-14 20:06:00,38.0,34.5,29.94,SSW,209,6.0,7.0,87,0.00,,,0.09,VWS V14.01,2013-02-15 01:06:00,
2013-02-14 20:09:00,38.0,34.5,29.94,SSW,209,1.0,7.0,87,0.00,,,0.09,VWS V14.01,2013-02-15 01:09:00,
2013-02-14 20:11:00,38.0,34.5,29.94,SSW,209,4.0,7.0,87,0.00,,,0.09,VWS V14.01,2013-02-15 01:11:00,
2013-02-14 20:14:00,38.0,34.5,29.94,SSW,209,3.0,7.0,87,0.00,,,0.09,VWS V14.01,2013-02-15 01:14:00,
2013-02-14 20:16:00,37.9,34.4,29.94,SSW,209,3.0,7.0,87,0.00,,,0.09,VWS V14.01,2013-02-15 01:16:00,
2013-02-14 20:18:00,37.9,34.4,29.94,SW,214,7.0,7.0,87,0.00,,,0.09,VWS V14.01,2013-02-15 01:18:00,
2013-02-14 20:21:00,37.8,34.3,29.94,SW,214,0.0,7.0,87,0.00,,,0.09,VWS V14.01,2013-02-15 01:21:00,
2013-02-14 20:22:00,37.8,34.3,29.94,SW,214,3.0,7.0,87,0.00,,,0.09,VWS V14.01,2013-02-15 01:22:00,
2013-02-14 20:23:00,37.8,34.3,29.94,SW,214,3.0,7.0,87,0.00,,,0.09,VWS V14.01,2013-02-15 01:23:00,
2013-02-14 20:26:00,37.8,34.3,29.94,SW,215,4.0,7.0,87,0.00,,,0.09,VWS V14.01,2013-02-15 01:26:00,
2013-02-14 20:29:00,37.8,34.3,29.94,SW,215,5.0,7.0,87,0.00,,,0.09,VWS V14.01,2013-02-15 01:29:00,
2013-02-14 20:30:00,37.8,34.3,29.94,SW,215,4.0,7.0,87,0.00,,,0.09,VWS V14.01,2013-02-15 01:30:00,
2013-02-14 20:31:00,37.6,34.1,29.94,SW,215,3.0,7.0,87,0.00,,,0.09,VWS V14.01,2013-02-15 01:31:00,
2013-02-14 20:32:00,37.6,34.1,29.94,SW,217,5.0,9.0,87,0.00,,,0.09,VWS V14.01,2013-02-15 01:32:00,
2013-02-14 20:37:00,37.6,34.4,29.94,SW,217,3.0,7.0,88,0.00,,,0.09,VWS V14.01,2013-02-15 01:37:00,
2013-02-14 20:39:00,37.6,34.4,29.94,SW,217,5.0,7.0,88,0.00,,,0.09,VWS V14.01,2013-02-15 01:39:00,
2013-02-14 20:40:00,37.6,34.4,29.94,SW,217,2.0,8.0,88,0.00,,,0.09,VWS V14.01,2013-02-15 01:40:00,
2013-02-14 20:42:00,37.5,34.3,29.94,SW,218,7.0,8.0,88,0.00,,,0.09,VWS V14.01,2013-02-15 01:42:00,
2013-02-14 20:46:00,37.5,34.3,29.94,SW,219,6.0,8.0,88,0.00,,,0.09,VWS V14.01,2013-02-15 01:46:00,
2013-02-14 20:47:00,37.5,34.3,29.94,SW,219,5.0,8.0,88,0.00,,,0.09,VWS V14.01,2013-02-15 01:47:00,
2013-02-14 20:50:00,37.5,34.3,29.95,SW,219,0.0,8.0,88,0.00,,,0.09,VWS V14.01,2013-02-15 01:50:00,
2013-02-14 20:52:00,37.5,34.3,29.95,SW,219,5.0,8.0,88,0.00,,,0.09,VWS V14.01,2013-02-15 01:52:00,
2013-02-14 20:55:00,37.3,34.1,29.95,SW,219,3.0,8.0,88,0.00,,,0.09,VWS V14.01,2013-02-15 01:55:00,
2013-02-14 20:57:00,37.3,34.1,29.95,SW,219,4.0,8.0,88,0.00,,,0.09,VWS V14.01,2013-02-15 01:57:00,
2013-02-14 21:00:00,37.3,34.1,29.95,SW,219,4.0,8.0,88,0.00,,,0.09,VWS V14.01,2013-02-15 02:00:00,
2013-02-14 21:02:00,37.2,34.0,29.95,SW,219,5.0,8.0,88,0.00,,,0.09,VWS V14.01,2013-02-15 02:02:00,
2013-02-14 21:03:00,37.2,34.0,29.95,SW,219,6.0,8.0,88,0.00,,,0.09,VWS V14.01,2013-02-15 02:03:00,
2013-02-14 21:08:00,37.2,34.0,29.95,SW,224,6.0,9.0,88,0.00,,,0.09,VWS V14.01,2013-02-15 02:08:00,
2013-02-14 21:10:00,37.2,34.0,29.95,SW,224,4.0,9.0,88,0.00,,,0.09,VWS V14.01,2013-02-15 02:10:00,
2013-02-14 21:11:00,37.2,34.0,29.95,SW,224,5.0,9.0,88,0.00,,,0.09,VWS V14.01,2013-02-15 02:11:00,
2013-02-14 21:13:00,37.0,33.8,29.95,SW,224,4.0,9.0,88,0.00,,,0.09,VWS V14.01,2013-02-15 02:13:00,
2013-02-14 21:21:00,37.0,33.8,29.95,SW,224,3.0,3.0,88,0.00,,,0.09,VWS V14.01,2013-02-15 02:21:00,
2013-02-14 21:23:00,37.0,33.8,29.95,SW,224,5.0,7.0,88,0.00,,,0.09,VWS V14.01,2013-02-15 02:23:00,
2013-02-14 21:24:00,36.9,33.7,29.95,SW,224,4.0,7.0,88,0.00,,,0.09,VWS V14.01,2013-02-15 02:24:00,
2013-02-14 21:26:00,36.9,33.7,29.95,SW,224,6.0,7.0,88,0.00,,,0.09,VWS V14.01,2013-02-15 02:26:00,
2013-02-14 21:27:00,36.9,33.7,29.95,SW,224,5.0,7.0,88,0.00,,,0.09,VWS V14.01,2013-02-15 02:27:00,
2013-02-14 21:29:00,36.9,34.0,29.95,SW,224,4.0,7.0,89,0.00,,,0.09,VWS V14.01,2013-02-15 02:29:00,
2013-02-14 21:31:00,36.8,33.9,29.95,SW,224,4.0,7.0,89,0.00,,,0.09,VWS V14.01,2013-02-15 02:31:00,
2013-02-14 21:32:00,36.8,33.9,29.95,SW,224,3.0,7.0,89,0.00,,,0.09,VWS V14.01,2013-02-15 02:32:00,
2013-02-14 21:33:00,36.8,33.9,29.95,SW,224,0.0,2.0,89,0.00,,,0.09,VWS V14.01,2013-02-15 02:33:00,
2013-02-14 21:35:00,36.8,33.9,29.95,SW,224,0.0,5.0,89,0.00,,,0.09,VWS V14.01,2013-02-15 02:35:00,
2013-02-14 21:37:00,36.8,33.9,29.95,SW,224,3.0,5.0,89,0.00,,,0.09,VWS V14.01,2013-02-15 02:37:00,
2013-02-14 21:41:00,36.6,33.7,29.95,SW,224,5.0,5.0,89,0.00,,,0.09,VWS V14.01,2013-02-15 02:41:00,
2013-02-14 21:42:00,36.6,33.7,29.95,SW,224,2.0,5.0,89,0.00,,,0.09,VWS V14.01,2013-02-15 02:42:00,
2013-02-14 21:44:00,36.5,33.6,29.95,SW,224,6.0,8.0,89,0.00,,,0.09,VWS V14.01,2013-02-15 02:44:00,
2013-02-14 21:47:00,36.5,33.6,29.95,SW,224,2.0,8.0,89,0.00,,,0.09,VWS V14.01,2013-02-15 02:47:00,
2013-02-14 21:50:00,36.5,33.6,29.95,SW,224,5.0,8.0,89,0.00,,,0.09,VWS V14.01,2013-02-15 02:50:00,
2013-02-14 21:52:00,36.3,33.4,29.95,SW,224,4.0,8.0,89,0.00,,,0.09,VWS V14.01,2013-02-15 02:52:00,
2013-02-14 21:56:00,36.3,33.4,29.95,SW,225,4.0,8.0,89,0.00,,,0.09,VWS V14.01,2013-02-15 02:56:00,
2013-02-14 21:58:00,36.3,33.4,29.95,SW,226,5.0,8.0,89,0.00,,,0.09,VWS V14.01,2013-02-15 02:58:00,
2013-02-14 21:59:00,36.3,33.7,29.95,SW,226,4.0,8.0,90,0.00,,,0.09,VWS V14.01,2013-02-15 02:59:00,
2013-02-14 22:01:00,36.3,33.7,29.95,SW,226,6.0,8.0,90,0.00,,,0.09,VWS V14.01,2013-02-15 03:01:00,
2013-02-14 22:04:00,36.3,33.7,29.96,SW,227,3.0,5.0,90,0.00,,,0.09,VWS V14.01,2013-02-15 03:04:00,
2013-02-14 22:06:00,36.3,33.7,29.96,SW,227,2.0,7.0,90,0.00,,,0.09,VWS V14.01,2013-02-15 03:06:00,
2013-02-14 22:09:00,36.3,33.7,29.96,SW,227,4.0,7.0,90,0.00,,,0.09,VWS V14.01,2013-02-15 03:09:00,
2013-02-14 22:12:00,36.2,33.6,29.96,SW,227,3.0,7.0,90,0.00,,,0.09,VWS V14.01,2013-02-15 03:12:00,
2013-02-14 22:14:00,36.2,33.6,29.96,SW,227,5.0,7.0,90,0.00,,,0.09,VWS V14.01,2013-02-15 03:14:00,
2013-02-14 22:15:00,36.2,33.6,29.96,SW,227,6.0,7.0,90,0.00,,,0.09,VWS V14.01,2013-02-15 03:15:00,
2013-02-14 22:16:00,36.2,33.6,29.96,SW,227,4.0,7.0,90,0.00,,,0.09,VWS V14.01,2013-02-15 03:16:00,
2013-02-14 22:20:00,36.0,33.4,29.95,SW,227,3.0,7.0,90,0.00,,,0.09,VWS V14.01,2013-02-15 03:20:00,
2013-02-14 22:22:00,36.0,33.4,29.95,SW,227,6.0,7.0,90,0.00,,,0.09,VWS V14.01,2013-02-15 03:22:00,
2013-02-14 22:24:00,36.0,33.4,29.95,SW,227,7.0,7.0,90,0.00,,,0.09,VWS V14.01,2013-02-15 03:24:00,
2013-02-14 22:28:00,36.0,33.4,29.95,SW,227,3.0,9.0,90,0.00,,,0.09,VWS V14.01,2013-02-15 03:28:00,
2013-02-14 22:30:00,36.0,33.4,29.95,WSW,237,6.0,10.0,90,0.00,,,0.09,VWS V14.01,2013-02-15 03:30:00,
2013-02-14 22:31:00,36.0,33.4,29.95,WSW,237,0.0,10.0,90,0.00,,,0.09,VWS V14.01,2013-02-15 03:31:00,
2013-02-14 22:33:00,36.0,33.4,29.96,SW,232,7.0,10.0,90,0.00,,,0.09,VWS V14.01,2013-02-15 03:33:00,
2013-02-14 22:37:00,35.9,33.3,29.96,SW,236,4.0,8.0,90,0.00,,,0.09,VWS V14.01,2013-02-15 03:37:00,
2013-02-14 22:38:00,35.9,33.3,29.96,WSW,238,6.0,11.0,90,0.00,,,0.09,VWS V14.01,2013-02-15 03:38:00,
2013-02-14 22:40:00,36.0,33.4,29.96,SW,227,6.0,11.0,90,0.00,,,0.09,VWS V14.01,2013-02-15 03:40:00,
2013-02-14 22:42:00,36.0,33.4,29.96,SW,236,8.0,11.0,90,0.00,,,0.09,VWS V14.01,2013-02-15 03:42:00,
2013-02-14 22:44:00,36.0,33.4,29.96,SW,231,5.0,11.0,90,0.00,,,0.09,VWS V14.01,2013-02-15 03:44:00,
2013-02-14 22:45:00,36.0,33.4,29.96,WSW,238,5.0,11.0,90,0.00,,,0.09,VWS V14.01,2013-02-15 03:45:00,
2013-02-14 22:46:00,36.0,33.4,29.96,WSW,239,7.0,11.0,90,0.00,,,0.09,VWS V14.01,2013-02-15 03:46:00,
2013-02-14 22:47:00,36.0,33.4,29.95,WSW,247,6.0,11.0,90,0.00,,,0.09,VWS V14.01,2013-02-15 03:47:00,
2013-02-14 22:51:00,36.0,33.4,29.95,SW,222,6.0,11.0,90,0.00,,,0.09,VWS V14.01,2013-02-15 03:51:00,
2013-02-14 22:54:00,36.0,33.4,29.95,SW,225,2.0,11.0,90,0.00,,,0.09,VWS V14.01,2013-02-15 03:54:00,
2013-02-14 22:55:00,36.0,33.4,29.95,SW,225,0.0,11.0,90,0.00,,,0.09,VWS V14.01,2013-02-15 03:55:00,
2013-02-14 22:56:00,36.0,33.4,29.95,SW,232,6.0,11.0,90,0.00,,,0.09,VWS V14.01,2013-02-15 03:56:00,
2013-02-14 22:57:00,35.9,33.3,29.95,SW,233,2.0,11.0,90,0.00,,,0.09,VWS V14.01,2013-02-15 03:57:00,
2013-02-14 23:02:00,35.9,33.3,29.95,WSW,237,3.0,11.0,90,0.00,,,0.09,VWS V14.01,2013-02-15 04:02:00,
2013-02-14 23:03:00,35.9,33.3,29.95,WSW,237,5.0,11.0,90,0.00,,,0.09,VWS V14.01,2013-02-15 04:03:00,
2013-02-14 23:08:00,35.9,33.0,29.95,WSW,247,4.0,8.0,89,0.00,,,0.09,VWS V14.01,2013-02-15 04:08:00,
2013-02-14 23:09:00,35.9,33.0,29.95,WSW,245,3.0,8.0,89,0.00,,,0.09,VWS V14.01,2013-02-15 04:09:00,
2013-02-14 23:10:00,35.9,33.0,29.95,WSW,245,7.0,8.0,89,0.00,,,0.09,VWS V14.01,2013-02-15 04:10:00,
2013-02-14 23:12:00,35.9,33.0,29.95,SW,235,3.0,9.0,89,0.00,,,0.09,VWS V14.01,2013-02-15 04:12:00,
2013-02-14 23:14:00,35.8,32.9,29.95,SW,236,5.0,9.0,89,0.00,,,0.09,VWS V14.01,2013-02-15 04:14:00,
2013-02-14 23:16:00,35.8,32.9,29.95,SW,236,2.0,9.0,89,0.00,,,0.09,VWS V14.01,2013-02-15 04:16:00,
2013-02-14 23:17:00,35.8,32.9,29.95,SW,236,4.0,9.0,89,0.00,,,0.09,VWS V14.01,2013-02-15 04:17:00,
2013-02-14 23:19:00,35.8,32.9,29.95,SW,236,7.0,9.0,89,0.00,,,0.09,VWS V14.01,2013-02-15 04:19:00,
2013-02-14 23:22:00,35.6,32.7,29.95,SW,236,2.0,9.0,89,0.00,,,0.09,VWS V14.01,2013-02-15 04:22:00,
2013-02-14 23:23:00,35.6,32.7,29.95,SW,236,4.0,9.0,89,0.00,,,0.09,VWS V14.01,2013-02-15 04:23:00,
2013-02-14 23:24:00,35.6,32.7,29.95,SW,229,8.0,9.0,89,0.00,,,0.09,VWS V14.01,2013-02-15 04:24:00,
2013-02-14 23:25:00,35.5,32.6,29.95,SW,229,6.0,9.0,89,0.00,,,0.09,VWS V14.01,2013-02-15 04:25:00,
2013-02-14 23:30:00,35.5,32.6,29.95,WSW,238,3.0,9.0,89,0.00,,,0.09,VWS V14.01,2013-02-15 04:30:00,
2013-02-14 23:31:00,35.5,32.6,29.95,WSW,238,4.0,9.0,89,0.00,,,0.09,VWS V14.01,2013-02-15 04:31:00,
2013-02-14 23:32:00,35.5,32.6,29.95,WSW,238,4.0,9.0,89,0.00,,,0.09,VWS V14.01,2013-02-15 04:32:00,
2013-02-14 23:36:00,35.5,32.6,29.95,WSW,239,7.0,9.0,89,0.00,,,0.09,VWS V14.01,2013-02-15 04:36:00,
2013-02-14 23:37:00,35.3,32.4,29.95,WSW,239,5.0,9.0,89,0.00,,,0.09,VWS V14.01,2013-02-15 04:37:00,
2013-02-14 23:38:00,35.3,32.4,29.95,SW,228,7.0,9.0,89,0.00,,,0.09,VWS V14.01,2013-02-15 04:38:00,
2013-02-14 23:39:00,35.3,32.4,29.95,SW,230,7.0,9.0,89,0.00,,,0.09,VWS V14.01,2013-02-15 04:39:00,
2013-02-14 23:42:00,35.3,32.4,29.95,SW,231,5.0,9.0,89,0.00,,,0.09,VWS V14.01,2013-02-15 04:42:00,
2013-02-14 23:44:00,35.3,32.4,29.95,SW,225,6.0,9.0,89,0.00,,,0.09,VWS V14.01,2013-02-15 04:44:00,
2013-02-14 23:45:00,35.3,32.4,29.95,SW,227,7.0,9.0,89,0.00,,,0.09,VWS V14.01,2013-02-15 04:45:00,
2013-02-14 23:46:00,35.3,32.4,29.95,West,264,12.0,12.0,89,0.00,,,0.09,VWS V14.01,2013-02-15 04:46:00,
2013-02-14 23:51:00,35.3,32.4,29.96,WSW,243,4.0,12.0,89,0.00,,,0.09,VWS V14.01,2013-02-15 04:51:00,
2013-02-14 23:52:00,35.3,32.4,29.96,SW,227,4.0,12.0,89,0.00,,,0.09,VWS V14.01,2013-02-15 04:52:00,
2013-02-14 23:53:00,35.3,32.4,29.96,SW,229,8.0,12.0,89,0.00,,,0.09,VWS V14.01,2013-02-15 04:53:00,
2013-02-14 23:55:00,35.2,32.3,29.96,SW,225,4.0,12.0,89,0.00,,,0.09,VWS V14.01,2013-02-15 04:55:00,
2013-02-14 23:57:00,35.2,32.3,29.96,SW,220,5.0,12.0,89,0.00,,,0.09,VWS V14.01,2013-02-15 04:57:00,
2013-02-14 23:59:00,35.2,32.3,29.96,SW,234,3.0,12.0,89,0.00,,,0.09,VWS V14.01,2013-02-15 04:59:00,